| time (UTC) | temp F | wind direction | speed MPH | gust MPH | rain 1hr in | rain 24hr in | rain mn in | humidity % | barometer mb |
| 20260507172005 | 45 | 90 | 3.0 | 4.0 | 0.00 | 0.80 | 0.39 | 79 | 1012.7 |
| 20260507171704 | 45 | 117 | 3.0 | 6.0 | 0.00 | 0.84 | 0.39 | 79 | 1012.8 |
| 20260507171604 | 45 | 118 | 4.0 | 6.0 | 0.00 | 0.84 | 0.39 | 79 | 1012.8 |
| 20260507171504 | 45 | 120 | 4.0 | 6.0 | 0.00 | 0.84 | 0.39 | 79 | 1012.6 |
| 20260507171305 | 44 | 125 | 4.0 | 7.0 | 0.00 | 0.85 | 0.39 | 79 | 1012.8 |
| 20260507171204 | 44 | 124 | 4.0 | 7.0 | 0.00 | 0.85 | 0.39 | 80 | 1012.6 |
| 20260507171104 | 44 | 123 | 4.0 | 7.0 | 0.00 | 0.85 | 0.39 | 79 | 1012.6 |
| 20260507170804 | 44 | 123 | 4.0 | 7.0 | 0.00 | 0.87 | 0.39 | 80 | 1012.7 |
| 20260507170704 | 44 | 121 | 4.0 | 7.0 | 0.00 | 0.87 | 0.39 | 79 | 1012.7 |
| 20260507170605 | 44 | 118 | 4.0 | 7.0 | 0.00 | 0.87 | 0.39 | 79 | 1012.6 |
| 20260507170504 | 44 | 119 | 4.0 | 7.0 | 0.00 | 0.89 | 0.39 | 79 | 1012.9 |
| 20260507170404 | 44 | 117 | 4.0 | 7.0 | 0.00 | 0.89 | 0.39 | 78 | 1012.6 |
| 20260507170304 | 44 | 117 | 4.0 | 7.0 | 0.00 | 0.89 | 0.39 | 79 | 1012.8 |
| 20260507170204 | 44 | 117 | 4.0 | 7.0 | 0.00 | 0.89 | 0.39 | 79 | 1012.6 |
| 20260507170005 | 44 | 110 | 5.0 | 7.0 | 0.00 | 0.89 | 0.39 | 79 | 1012.5 |
| 20260507165904 | 44 | 113 | 5.0 | 7.0 | 0.00 | 0.91 | 0.39 | 79 | 1012.6 |
| 20260507165704 | 44 | 114 | 6.0 | 7.0 | 0.00 | 0.91 | 0.39 | 79 | 1012.5 |
| 20260507165505 | 44 | 110 | 5.0 | 7.0 | 0.00 | 0.91 | 0.39 | 79 | 1012.6 |
| 20260507165204 | 44 | 101 | 5.0 | 7.0 | 0.00 | 0.92 | 0.39 | 79 | 1012.8 |
| 20260507165104 | 44 | 104 | 5.0 | 7.0 | 0.00 | 0.92 | 0.39 | 78 | 1012.6 |
| 20260507165005 | 44 | 107 | 5.0 | 7.0 | 0.00 | 0.92 | 0.39 | 78 | 1012.5 |
| 20260507164804 | 44 | 100 | 4.0 | 7.0 | 0.00 | 0.97 | 0.39 | 79 | 1012.7 |
| 20260507164705 | 44 | 102 | 4.0 | 6.0 | 0.00 | 0.97 | 0.39 | 80 | 1012.8 |
| 20260507164604 | 45 | 104 | 4.0 | 6.0 | 0.00 | 0.97 | 0.39 | 80 | 1012.7 |
| 20260507164505 | 45 | 106 | 4.0 | 6.0 | 0.00 | 0.97 | 0.39 | 80 | 1012.9 |
| 20260507164404 | 45 | 115 | 4.0 | 6.0 | 0.00 | 0.98 | 0.39 | 80 | 1012.7 |
| 20260507164304 | 44 | 120 | 4.0 | 6.0 | 0.00 | 0.98 | 0.39 | 80 | 1012.8 |
| 20260507164204 | 44 | 118 | 4.0 | 6.0 | 0.00 | 0.98 | 0.39 | 80 | 1012.8 |
| 20260507164105 | 45 | 113 | 4.0 | 6.0 | 0.00 | 0.98 | 0.39 | 80 | 1012.6 |
| 20260507164004 | 45 | 108 | 4.0 | 6.0 | 0.00 | 0.98 | 0.39 | 79 | 1012.7 |
| 20260507163904 | 45 | 102 | 4.0 | 6.0 | 0.00 | 1.03 | 0.39 | 79 | 1012.9 |
| 20260507163704 | 45 | 103 | 4.0 | 6.0 | 0.00 | 1.03 | 0.39 | 81 | 1012.4 |
| 20260507163604 | 45 | 104 | 4.0 | 6.0 | 0.00 | 1.03 | 0.39 | 80 | 1012.7 |
| 20260507163505 | 45 | 106 | 4.0 | 7.0 | 0.00 | 1.03 | 0.39 | 80 | 1012.6 |
| 20260507163404 | 45 | 103 | 4.0 | 7.0 | 0.00 | 1.04 | 0.39 | 80 | 1012.8 |
| 20260507163305 | 45 | 101 | 4.0 | 8.0 | 0.00 | 1.04 | 0.39 | 79 | 1012.5 |
| 20260507163204 | 46 | 108 | 4.0 | 8.0 | 0.00 | 1.04 | 0.39 | 80 | 1012.7 |
| 20260507163104 | 46 | 113 | 4.0 | 8.0 | 0.00 | 1.04 | 0.39 | 80 | 1012.8 |
| 20260507162804 | 46 | 106 | 4.0 | 8.0 | 0.00 | 1.06 | 0.39 | 78 | 1012.6 |
| 20260507162704 | 45 | 101 | 4.0 | 8.0 | 0.00 | 1.06 | 0.39 | 78 | 1012.8 |
| 20260507162604 | 45 | 99 | 4.0 | 8.0 | 0.00 | 1.06 | 0.39 | 78 | 1012.7 |
| 20260507162505 | 45 | 96 | 4.0 | 9.0 | 0.00 | 1.06 | 0.39 | 77 | 1012.5 |
| 20260507162404 | 45 | 90 | 5.0 | 9.0 | 0.00 | 1.07 | 0.39 | 78 | 1012.7 |
| 20260507162306 | 45 | 86 | 4.0 | 9.0 | 0.00 | 1.07 | 0.39 | 77 | 1012.7 |
| 20260507162104 | 46 | 72 | 5.0 | 9.0 | 0.00 | 1.07 | 0.39 | 79 | 1012.6 |
| 20260507162005 | 46 | 75 | 5.0 | 9.0 | 0.00 | 1.07 | 0.39 | 80 | 1012.8 |
| 20260507161904 | 46 | 75 | 5.0 | 9.0 | 0.00 | 1.09 | 0.39 | 80 | 1012.5 |
| 20260507161804 | 45 | 77 | 5.0 | 9.0 | 0.00 | 1.09 | 0.39 | 81 | 1012.7 |
| 20260507161704 | 45 | 78 | 6.0 | 9.0 | 0.00 | 1.09 | 0.39 | 81 | 1012.6 |
| 20260507161604 | 45 | 67 | 6.0 | 9.0 | 0.00 | 1.09 | 0.39 | 81 | 1012.6 |
| 20260507161505 | 45 | 60 | 6.0 | 9.0 | 0.00 | 1.09 | 0.39 | 81 | 1012.6 |
| 20260507161404 | 46 | 53 | 6.0 | 9.0 | 0.00 | 1.09 | 0.39 | 81 | 1012.6 |
| 20260507161305 | 46 | 41 | 6.0 | 9.0 | 0.00 | 1.09 | 0.39 | 81 | 1012.7 |
| 20260507161204 | 46 | 24 | 6.0 | 9.0 | 0.00 | 1.09 | 0.39 | 81 | 1012.5 |
| 20260507161104 | 45 | 20 | 7.0 | 9.0 | 0.00 | 1.09 | 0.39 | 81 | 1012.5 |
| 20260507161005 | 45 | 13 | 6.0 | 9.0 | 0.00 | 1.09 | 0.39 | 82 | 1012.6 |
| 20260507160904 | 46 | 359 | 6.0 | 9.0 | 0.00 | 1.09 | 0.39 | 83 | 1012.5 |
| 20260507160804 | 46 | 1 | 6.0 | 9.0 | 0.00 | 1.09 | 0.39 | 84 | 1012.4 |
| 20260507160704 | 46 | 356 | 6.0 | 9.0 | 0.00 | 1.09 | 0.39 | 83 | 1012.4 |
| 20260507160605 | 46 | 5 | 6.0 | 9.0 | 0.00 | 1.09 | 0.39 | 82 | 1012.5 |
| 20260507160506 | 46 | 1 | 6.0 | 8.0 | 0.00 | 1.09 | 0.39 | 83 | 1012.6 |
| 20260507160404 | 46 | 2 | 6.0 | 8.0 | 0.00 | 1.09 | 0.39 | 82 | 1012.5 |
| 20260507160305 | 46 | 1 | 6.0 | 8.0 | 0.00 | 1.09 | 0.39 | 82 | 1012.6 |
| 20260507160204 | 46 | 3 | 6.0 | 8.0 | 0.00 | 1.09 | 0.39 | 82 | 1012.4 |
| 20260507160104 | 47 | 3 | 6.0 | 9.0 | 0.00 | 1.09 | 0.39 | 81 | 1012.5 |
| 20260507160005 | 47 | 10 | 6.0 | 9.0 | 0.00 | 1.09 | 0.39 | 81 | 1012.6 |
| 20260507155904 | 46 | 25 | 7.0 | 11.0 | 0.00 | 1.09 | 0.39 | 80 | 1012.6 |
| 20260507155804 | 46 | 29 | 7.0 | 11.0 | 0.00 | 1.09 | 0.39 | 83 | 1012.5 |
| 20260507155704 | 46 | 36 | 7.0 | 11.0 | 0.00 | 1.09 | 0.39 | 81 | 1012.4 |
| 20260507155604 | 46 | 34 | 7.0 | 11.0 | 0.00 | 1.09 | 0.39 | 83 | 1012.6 |
| 20260507155504 | 46 | 40 | 7.0 | 11.0 | 0.00 | 1.09 | 0.39 | 83 | 1012.4 |
| 20260507155405 | 46 | 42 | 7.0 | 11.0 | 0.00 | 1.09 | 0.39 | 82 | 1012.6 |
| 20260507155306 | 46 | 47 | 7.0 | 11.0 | 0.00 | 1.09 | 0.39 | 82 | 1012.3 |
| 20260507155104 | 46 | 49 | 7.0 | 11.0 | 0.00 | 1.09 | 0.39 | 81 | 1012.5 |
| 20260507155005 | 46 | 45 | 7.0 | 11.0 | 0.00 | 1.09 | 0.39 | 82 | 1012.5 |
| 20260507154904 | 47 | 41 | 6.0 | 11.0 | 0.00 | 1.09 | 0.39 | 81 | 1012.5 |
| 20260507154705 | 47 | 38 | 7.0 | 14.0 | 0.00 | 1.09 | 0.39 | 80 | 1012.6 |
| 20260507154604 | 47 | 40 | 8.0 | 16.0 | 0.00 | 1.09 | 0.39 | 80 | 1012.5 |
| 20260507154504 | 47 | 44 | 9.0 | 16.0 | 0.00 | 1.09 | 0.39 | 81 | 1012.6 |
| 20260507154304 | 48 | 47 | 9.0 | 16.0 | 0.00 | 1.09 | 0.39 | 79 | 1012.5 |
| 20260507154104 | 47 | 51 | 10.0 | 16.0 | 0.00 | 1.09 | 0.39 | 80 | 1012.3 |
| 20260507154005 | 47 | 55 | 10.0 | 16.0 | 0.00 | 1.09 | 0.39 | 80 | 1012.5 |
| 20260507153904 | 47 | 55 | 10.0 | 16.0 | 0.00 | 1.09 | 0.39 | 79 | 1012.4 |
| 20260507153804 | 47 | 56 | 10.0 | 16.0 | 0.00 | 1.09 | 0.39 | 79 | 1012.5 |
| 20260507153704 | 48 | 58 | 10.0 | 16.0 | 0.00 | 1.09 | 0.39 | 79 | 1012.6 |
| 20260507153604 | 48 | 61 | 9.0 | 16.0 | 0.00 | 1.09 | 0.39 | 78 | 1012.5 |
| 20260507153504 | 47 | 59 | 9.0 | 14.0 | 0.00 | 1.09 | 0.39 | 79 | 1012.5 |
| 20260507153404 | 47 | 59 | 9.0 | 14.0 | 0.00 | 1.09 | 0.39 | 79 | 1012.4 |
| 20260507153304 | 47 | 61 | 9.0 | 14.0 | 0.00 | 1.09 | 0.39 | 80 | 1012.3 |
| 20260507153005 | 46 | 45 | 8.0 | 14.0 | 0.00 | 1.09 | 0.39 | 80 | 1012.4 |
| 20260507152904 | 46 | 41 | 8.0 | 14.0 | 0.00 | 1.09 | 0.39 | 81 | 1012.4 |
| 20260507152804 | 46 | 42 | 8.0 | 14.0 | 0.00 | 1.09 | 0.39 | 80 | 1012.3 |
| 20260507152704 | 46 | 36 | 7.0 | 11.0 | 0.00 | 1.09 | 0.39 | 79 | 1012.3 |
| 20260507152604 | 47 | 27 | 7.0 | 11.0 | 0.00 | 1.09 | 0.39 | 79 | 1012.4 |
| 20260507152505 | 47 | 20 | 7.0 | 11.0 | 0.00 | 1.09 | 0.39 | 78 | 1012.5 |
| 20260507152404 | 47 | 17 | 7.0 | 11.0 | 0.00 | 1.09 | 0.39 | 78 | 1012.4 |
| 20260507152306 | 47 | 16 | 7.0 | 11.0 | 0.00 | 1.09 | 0.39 | 78 | 1012.4 |
| 20260507152005 | 47 | 19 | 7.0 | 11.0 | 0.00 | 1.09 | 0.39 | 77 | 1012.5 |
| 20260507151904 | 47 | 21 | 8.0 | 11.0 | 0.00 | 1.09 | 0.39 | 78 | 1012.1 |
| 20260507151804 | 47 | 14 | 9.0 | 11.0 | 0.00 | 1.09 | 0.39 | 77 | 1012.2 |
| 20260507151604 | 48 | 23 | 9.0 | 11.0 | 0.00 | 1.09 | 0.39 | 77 | 1012.5 |
| 20260507151404 | 47 | 22 | 8.0 | 11.0 | 0.00 | 1.10 | 0.39 | 79 | 1012.2 |
| 20260507151305 | 47 | 13 | 8.0 | 11.0 | 0.00 | 1.10 | 0.39 | 78 | 1012.4 |
| 20260507151204 | 47 | 7 | 8.0 | 11.0 | 0.00 | 1.10 | 0.39 | 76 | 1012.4 |
| 20260507151005 | 48 | 11 | 7.0 | 11.0 | 0.00 | 1.10 | 0.39 | 75 | 1012.4 |
| 20260507150904 | 48 | 8 | 7.0 | 11.0 | 0.00 | 1.10 | 0.39 | 79 | 1012.3 |
| 20260507150804 | 48 | 22 | 6.0 | 11.0 | 0.00 | 1.10 | 0.39 | 76 | 1012.4 |
| 20260507150704 | 48 | 27 | 6.0 | 11.0 | 0.00 | 1.10 | 0.39 | 78 | 1012.4 |
| 20260507150604 | 48 | 26 | 6.0 | 11.0 | 0.00 | 1.10 | 0.39 | 76 | 1012.4 |
| 20260507150504 | 48 | 27 | 6.0 | 9.0 | 0.00 | 1.10 | 0.39 | 78 | 1012.3 |
| 20260507150405 | 48 | 32 | 6.0 | 11.0 | 0.00 | 1.10 | 0.39 | 78 | 1012.3 |
| 20260507150304 | 48 | 32 | 6.0 | 11.0 | 0.00 | 1.10 | 0.39 | 77 | 1012.3 |
| 20260507150204 | 48 | 40 | 6.0 | 11.0 | 0.00 | 1.10 | 0.39 | 78 | 1012.3 |
| 20260507150104 | 48 | 40 | 6.0 | 11.0 | 0.00 | 1.10 | 0.39 | 75 | 1012.2 |
| 20260507150005 | 48 | 42 | 6.0 | 11.0 | 0.00 | 1.10 | 0.39 | 77 | 1012.4 |
| 20260507145904 | 48 | 41 | 6.0 | 11.0 | 0.00 | 1.10 | 0.39 | 76 | 1012.3 |
| 20260507145804 | 48 | 38 | 6.0 | 11.0 | 0.00 | 1.10 | 0.39 | 72 | 1012.4 |
| 20260507145504 | 50 | 33 | 6.0 | 11.0 | 0.00 | 1.10 | 0.39 | 72 | 1012.2 |
| 20260507145404 | 50 | 32 | 6.0 | 11.0 | 0.00 | 1.10 | 0.39 | 76 | 1012.4 |
| 20260507145306 | 49 | 37 | 5.0 | 9.0 | 0.00 | 1.10 | 0.39 | 74 | 1012.2 |
| 20260507145204 | 49 | 30 | 6.0 | 9.0 | 0.00 | 1.10 | 0.39 | 74 | 1012.3 |
| 20260507145104 | 49 | 29 | 6.0 | 11.0 | 0.00 | 1.10 | 0.39 | 73 | 1012.4 |
| 20260507144804 | 49 | 23 | 6.0 | 11.0 | 0.00 | 1.10 | 0.39 | 76 | 1012.3 |
| 20260507144704 | 50 | 27 | 6.0 | 11.0 | 0.00 | 1.10 | 0.39 | 75 | 1012.2 |
| 20260507144604 | 50 | 22 | 6.0 | 11.0 | 0.00 | 1.10 | 0.39 | 75 | 1012.4 |
| 20260507144504 | 50 | 25 | 7.0 | 11.0 | 0.00 | 1.10 | 0.39 | 72 | 1012.5 |
| 20260507144404 | 50 | 28 | 6.0 | 11.0 | 0.00 | 1.10 | 0.39 | 77 | 1012.4 |
| 20260507144304 | 50 | 28 | 6.0 | 11.0 | 0.00 | 1.10 | 0.39 | 77 | 1012.5 |
| 20260507144204 | 50 | 32 | 6.0 | 11.0 | 0.00 | 1.10 | 0.39 | 76 | 1012.3 |
| 20260507144104 | 50 | 30 | 6.0 | 9.0 | 0.00 | 1.10 | 0.39 | 71 | 1012.4 |
| 20260507144005 | 49 | 21 | 6.0 | 9.0 | 0.00 | 1.10 | 0.39 | 72 | 1012.6 |
| 20260507143804 | 49 | 10 | 7.0 | 14.0 | 0.00 | 1.10 | 0.39 | 71 | 1012.4 |
| 20260507143704 | 49 | 359 | 7.0 | 14.0 | 0.00 | 1.10 | 0.39 | 74 | 1012.4 |
| 20260507143604 | 49 | 352 | 7.0 | 14.0 | 0.00 | 1.10 | 0.39 | 71 | 1012.7 |
| 20260507143505 | 50 | 349 | 7.0 | 14.0 | 0.00 | 1.10 | 0.39 | 69 | 1012.3 |
| 20260507143404 | 50 | 345 | 6.0 | 14.0 | 0.00 | 1.10 | 0.39 | 73 | 1012.4 |
| 20260507143304 | 50 | 348 | 7.0 | 14.0 | 0.00 | 1.10 | 0.39 | 75 | 1012.3 |
| 20260507143104 | 50 | 1 | 7.0 | 14.0 | 0.00 | 1.10 | 0.39 | 75 | 1012.5 |
| 20260507143005 | 50 | 12 | 7.0 | 14.0 | 0.00 | 1.10 | 0.39 | 75 | 1012.4 |
| 20260507142904 | 50 | 15 | 7.0 | 14.0 | 0.00 | 1.10 | 0.39 | 76 | 1012.2 |
| 20260507142804 | 50 | 17 | 7.0 | 14.0 | 0.00 | 1.10 | 0.39 | 74 | 1012.2 |
| 20260507142704 | 50 | 30 | 6.0 | 9.0 | 0.00 | 1.10 | 0.39 | 74 | 1012.2 |
| 20260507142604 | 50 | 38 | 6.0 | 9.0 | 0.00 | 1.10 | 0.39 | 74 | 1012.4 |
| 20260507142404 | 50 | 41 | 6.0 | 9.0 | 0.00 | 1.10 | 0.39 | 77 | 1012.5 |
| 20260507142306 | 49 | 31 | 7.0 | 11.0 | 0.00 | 1.10 | 0.39 | 76 | 1012.5 |
| 20260507142104 | 49 | 28 | 7.0 | 11.0 | 0.00 | 1.10 | 0.39 | 69 | 1012.2 |
| 20260507141904 | 50 | 33 | 6.0 | 11.0 | 0.00 | 1.10 | 0.39 | 68 | 1012.5 |
| 20260507141804 | 50 | 36 | 6.0 | 11.0 | 0.00 | 1.10 | 0.39 | 74 | 1012.4 |
| 20260507141704 | 51 | 35 | 6.0 | 11.0 | 0.00 | 1.10 | 0.39 | 71 | 1012.4 |
| 20260507141604 | 51 | 34 | 6.0 | 11.0 | 0.00 | 1.10 | 0.39 | 77 | 1012.4 |
| 20260507141404 | 50 | 32 | 6.0 | 11.0 | 0.00 | 1.10 | 0.39 | 78 | 1012.3 |
| 20260507141304 | 51 | 40 | 6.0 | 11.0 | 0.00 | 1.10 | 0.39 | 79 | 1012.2 |
| 20260507141204 | 51 | 40 | 6.0 | 11.0 | 0.00 | 1.10 | 0.39 | 73 | 1012.4 |
| 20260507141104 | 51 | 32 | 5.0 | 11.0 | 0.00 | 1.10 | 0.39 | 75 | 1012.5 |
| 20260507140904 | 51 | 24 | 6.0 | 8.0 | 0.00 | 1.10 | 0.39 | 79 | 1012.5 |
| 20260507140804 | 50 | 24 | 6.0 | 11.0 | 0.00 | 1.10 | 0.39 | 79 | 1012.4 |
| 20260507140704 | 50 | 25 | 7.0 | 11.0 | 0.00 | 1.10 | 0.39 | 79 | 1012.4 |
| 20260507140604 | 50 | 26 | 7.0 | 11.0 | 0.00 | 1.10 | 0.39 | 78 | 1012.4 |
| 20260507140404 | 50 | 33 | 8.0 | 11.0 | 0.00 | 1.10 | 0.39 | 70 | 1012.4 |
| 20260507140304 | 50 | 33 | 8.0 | 11.0 | 0.00 | 1.10 | 0.39 | 74 | 1012.6 |
| 20260507140204 | 50 | 27 | 8.0 | 11.0 | 0.00 | 1.10 | 0.39 | 71 | 1012.5 |
| 20260507140104 | 50 | 27 | 8.0 | 11.0 | 0.00 | 1.10 | 0.39 | 75 | 1012.4 |
| 20260507140005 | 50 | 22 | 8.0 | 11.0 | 0.00 | 1.10 | 0.39 | 77 | 1012.2 |
| 20260507135904 | 50 | 22 | 8.0 | 11.0 | 0.00 | 1.10 | 0.39 | 76 | 1012.4 |
| 20260507135804 | 50 | 16 | 7.0 | 11.0 | 0.00 | 1.10 | 0.39 | 73 | 1012.5 |
| 20260507135604 | 50 | 14 | 7.0 | 9.0 | 0.00 | 1.10 | 0.39 | 75 | 1012.1 |
| 20260507135505 | 50 | 6 | 6.0 | 9.0 | 0.00 | 1.10 | 0.39 | 69 | 1012.3 |
| 20260507135404 | 50 | 356 | 6.0 | 11.0 | 0.00 | 1.10 | 0.39 | 71 | 1012.2 |
| 20260507135306 | 50 | 352 | 7.0 | 11.0 | 0.00 | 1.10 | 0.39 | 76 | 1012.4 |
| 20260507135205 | 50 | 353 | 6.0 | 11.0 | 0.00 | 1.10 | 0.39 | 78 | 1012.5 |
| 20260507135104 | 50 | 354 | 6.0 | 11.0 | 0.00 | 1.10 | 0.39 | 79 | 1012.4 |
| 20260507135005 | 50 | 358 | 6.0 | 11.0 | 0.00 | 1.10 | 0.39 | 76 | 1012.3 |
| 20260507134804 | 51 | 356 | 6.0 | 11.0 | 0.00 | 1.11 | 0.39 | 74 | 1012.3 |
| 20260507134704 | 51 | 347 | 6.0 | 11.0 | 0.00 | 1.11 | 0.39 | 73 | 1012.5 |
| 20260507134505 | 51 | 347 | 6.0 | 11.0 | 0.00 | 1.11 | 0.39 | 77 | 1012.6 |
| 20260507134304 | 51 | 345 | 6.0 | 9.0 | 0.00 | 1.11 | 0.39 | 73 | 1012.4 |
| 20260507134204 | 51 | 348 | 6.0 | 9.0 | 0.00 | 1.11 | 0.39 | 73 | 1012.5 |
| 20260507134104 | 51 | 352 | 6.0 | 9.0 | 0.00 | 1.11 | 0.39 | 79 | 1012.6 |
| 20260507134004 | 51 | 1 | 7.0 | 11.0 | 0.00 | 1.11 | 0.39 | 74 | 1012.4 |
| 20260507133904 | 51 | 4 | 6.0 | 11.0 | 0.00 | 1.11 | 0.39 | 79 | 1012.5 |
| 20260507133804 | 50 | 14 | 7.0 | 11.0 | 0.00 | 1.11 | 0.39 | 80 | 1012.6 |
| 20260507133704 | 50 | 20 | 7.0 | 11.0 | 0.00 | 1.11 | 0.39 | 78 | 1012.4 |
| 20260507133505 | 49 | 356 | 8.0 | 11.0 | 0.00 | 1.11 | 0.39 | 78 | 1012.6 |
| 20260507133404 | 49 | 354 | 8.0 | 11.0 | 0.00 | 1.11 | 0.39 | 76 | 1012.6 |
| 20260507133304 | 49 | 343 | 8.0 | 11.0 | 0.00 | 1.11 | 0.39 | 76 | 1012.7 |
| 20260507133204 | 50 | 344 | 8.0 | 11.0 | 0.00 | 1.11 | 0.39 | 78 | 1012.5 |
| 20260507133104 | 50 | 340 | 8.0 | 11.0 | 0.00 | 1.11 | 0.39 | 71 | 1012.5 |
| 20260507133005 | 50 | 331 | 8.0 | 11.0 | 0.00 | 1.11 | 0.39 | 75 | 1012.5 |
| 20260507132904 | 49 | 331 | 8.0 | 11.0 | 0.00 | 1.12 | 0.39 | 78 | 1012.6 |
| 20260507132804 | 49 | 325 | 7.0 | 11.0 | 0.00 | 1.12 | 0.39 | 78 | 1012.7 |
| 20260507132704 | 50 | 324 | 7.0 | 11.0 | 0.00 | 1.12 | 0.39 | 81 | 1012.6 |
| 20260507132604 | 50 | 337 | 7.0 | 11.0 | 0.00 | 1.12 | 0.39 | 81 | 1012.6 |
| 20260507132505 | 51 | 355 | 6.0 | 11.0 | 0.00 | 1.12 | 0.39 | 76 | 1012.6 |
| 20260507132404 | 51 | 358 | 6.0 | 11.0 | 0.00 | 1.12 | 0.39 | 80 | 1012.4 |
| 20260507132307 | 51 | 9 | 6.0 | 11.0 | 0.00 | 1.12 | 0.39 | 76 | 1012.5 |
| 20260507132204 | 51 | 10 | 6.0 | 11.0 | 0.00 | 1.12 | 0.39 | 83 | 1012.6 |
| 20260507132104 | 52 | 10 | 6.0 | 11.0 | 0.00 | 1.12 | 0.39 | 78 | 1012.4 |
| 20260507132004 | 52 | 12 | 6.0 | 11.0 | 0.00 | 1.12 | 0.39 | 78 | 1012.4 |
| 20260507131905 | 52 | 11 | 6.0 | 11.0 | 0.00 | 1.12 | 0.39 | 79 | 1012.4 |
| 20260507131804 | 51 | 9 | 6.0 | 11.0 | 0.00 | 1.12 | 0.39 | 80 | 1012.6 |
| 20260507131704 | 50 | 6 | 6.0 | 11.0 | 0.00 | 1.12 | 0.39 | 81 | 1012.5 |
| 20260507131604 | 50 | 352 | 6.0 | 11.0 | 0.00 | 1.12 | 0.39 | 77 | 1012.4 |
| 20260507131505 | 50 | 346 | 6.0 | 11.0 | 0.00 | 1.12 | 0.39 | 80 | 1012.5 |
| 20260507131404 | 49 | 348 | 6.0 | 11.0 | 0.00 | 1.12 | 0.39 | 83 | 1012.5 |
| 20260507131203 | 50 | 349 | 5.0 | 8.0 | 0.00 | 1.12 | 0.39 | 83 | 1012.4 |
| 20260507131104 | 50 | 354 | 5.0 | 8.0 | 0.00 | 1.12 | 0.39 | 80 | 1012.5 |
| 20260507130804 | 50 | 340 | 6.0 | 11.0 | 0.00 | 1.12 | 0.39 | 79 | 1012.6 |
| 20260507130704 | 50 | 349 | 6.0 | 11.0 | 0.00 | 1.12 | 0.39 | 78 | 1012.4 |
| 20260507130604 | 50 | 7 | 6.0 | 11.0 | 0.00 | 1.12 | 0.39 | 77 | 1012.7 |
| 20260507130505 | 50 | 12 | 6.0 | 11.0 | 0.00 | 1.12 | 0.39 | 76 | 1012.6 |
| 20260507130404 | 49 | 11 | 6.0 | 11.0 | 0.00 | 1.13 | 0.39 | 80 | 1012.6 |
| 20260507130304 | 49 | 6 | 6.0 | 11.0 | 0.00 | 1.13 | 0.39 | 85 | 1012.6 |
| 20260507130204 | 49 | 1 | 7.0 | 11.0 | 0.00 | 1.13 | 0.39 | 80 | 1012.5 |
| 20260507130105 | 50 | 354 | 7.0 | 11.0 | 0.00 | 1.13 | 0.39 | 77 | 1012.6 |
| 20260507130005 | 51 | 357 | 7.0 | 9.0 | 0.00 | 1.13 | 0.39 | 83 | 1012.4 |
| 20260507125904 | 51 | 356 | 6.0 | 8.0 | 0.00 | 1.13 | 0.39 | 79 | 1012.7 |
| 20260507125804 | 51 | 351 | 6.0 | 8.0 | 0.00 | 1.13 | 0.39 | 80 | 1012.6 |
| 20260507125704 | 49 | 346 | 6.0 | 8.0 | 0.00 | 1.13 | 0.39 | 82 | 1012.5 |
| 20260507125604 | 49 | 340 | 5.0 | 8.0 | 0.00 | 1.13 | 0.39 | 80 | 1012.4 |
| 20260507125505 | 49 | 337 | 5.0 | 8.0 | 0.00 | 1.13 | 0.39 | 82 | 1012.4 |
| 20260507125404 | 49 | 331 | 5.0 | 8.0 | 0.00 | 1.13 | 0.39 | 80 | 1012.5 |
| 20260507125204 | 49 | 325 | 5.0 | 7.0 | 0.00 | 1.13 | 0.39 | 79 | 1012.4 |
| 20260507125104 | 50 | 321 | 5.0 | 7.0 | 0.00 | 1.13 | 0.39 | 80 | 1012.6 |
| 20260507125005 | 50 | 322 | 5.0 | 8.0 | 0.00 | 1.13 | 0.39 | 80 | 1012.6 |
| 20260507124904 | 50 | 336 | 5.0 | 8.0 | 0.00 | 1.13 | 0.39 | 81 | 1012.5 |
| 20260507124704 | 50 | 339 | 6.0 | 8.0 | 0.00 | 1.13 | 0.39 | 79 | 1012.6 |
| 20260507124604 | 50 | 345 | 6.0 | 9.0 | 0.00 | 1.13 | 0.39 | 80 | 1012.5 |
| 20260507124505 | 49 | 345 | 6.0 | 9.0 | 0.00 | 1.13 | 0.39 | 80 | 1012.7 |
| 20260507124404 | 49 | 343 | 7.0 | 9.0 | 0.00 | 1.13 | 0.39 | 81 | 1012.5 |
| 20260507124304 | 49 | 339 | 7.0 | 9.0 | 0.00 | 1.13 | 0.39 | 80 | 1012.5 |
| 20260507124204 | 49 | 339 | 7.0 | 9.0 | 0.00 | 1.13 | 0.39 | 84 | 1012.4 |
| 20260507124104 | 49 | 342 | 7.0 | 9.0 | 0.00 | 1.13 | 0.39 | 84 | 1012.5 |
| 20260507123904 | 49 | 345 | 6.0 | 9.0 | 0.00 | 1.13 | 0.39 | 82 | 1012.6 |
| 20260507123804 | 49 | 344 | 6.0 | 9.0 | 0.00 | 1.13 | 0.39 | 82 | 1012.4 |
| 20260507123704 | 49 | 346 | 6.0 | 9.0 | 0.00 | 1.13 | 0.39 | 80 | 1012.4 |
| 20260507123604 | 49 | 345 | 5.0 | 9.0 | 0.00 | 1.13 | 0.39 | 78 | 1012.5 |
| 20260507123505 | 49 | 352 | 6.0 | 9.0 | 0.00 | 1.13 | 0.39 | 79 | 1012.6 |
| 20260507123404 | 49 | 5 | 6.0 | 9.0 | 0.00 | 1.13 | 0.39 | 80 | 1012.4 |
| 20260507123304 | 49 | 14 | 5.0 | 9.0 | 0.00 | 1.13 | 0.39 | 78 | 1012.5 |
| 20260507123204 | 49 | 18 | 5.0 | 9.0 | 0.00 | 1.13 | 0.39 | 83 | 1012.6 |
| 20260507123104 | 49 | 29 | 5.0 | 9.0 | 0.00 | 1.13 | 0.39 | 81 | 1012.6 |
| 20260507123005 | 49 | 20 | 5.0 | 9.0 | 0.00 | 1.13 | 0.39 | 80 | 1012.5 |
| 20260507122904 | 50 | 13 | 5.0 | 9.0 | 0.00 | 1.13 | 0.39 | 79 | 1012.6 |
| 20260507122804 | 50 | 18 | 5.0 | 9.0 | 0.00 | 1.13 | 0.39 | 79 | 1012.6 |
| 20260507122705 | 50 | 31 | 6.0 | 9.0 | 0.00 | 1.13 | 0.39 | 85 | 1012.5 |
| 20260507122604 | 49 | 26 | 6.0 | 9.0 | 0.00 | 1.13 | 0.39 | 83 | 1012.6 |
| 20260507122504 | 49 | 17 | 5.0 | 9.0 | 0.00 | 1.13 | 0.39 | 81 | 1012.7 |
| 20260507122404 | 49 | 5 | 5.0 | 9.0 | 0.00 | 1.13 | 0.39 | 79 | 1012.6 |
| 20260507122307 | 49 | 5 | 6.0 | 9.0 | 0.00 | 1.13 | 0.39 | 76 | 1012.5 |
| 20260507122204 | 49 | 5 | 6.0 | 9.0 | 0.00 | 1.13 | 0.39 | 73 | 1012.5 |
| 20260507122104 | 49 | 1 | 6.0 | 9.0 | 0.00 | 1.13 | 0.39 | 78 | 1012.4 |
| 20260507122005 | 49 | 3 | 6.0 | 9.0 | 0.00 | 1.13 | 0.39 | 83 | 1012.3 |
| 20260507121904 | 49 | 359 | 6.0 | 9.0 | 0.00 | 1.13 | 0.39 | 81 | 1012.5 |
| 20260507121804 | 50 | 353 | 6.0 | 9.0 | 0.00 | 1.13 | 0.39 | 78 | 1012.3 |
| 20260507121704 | 50 | 344 | 6.0 | 7.0 | 0.00 | 1.13 | 0.39 | 84 | 1012.5 |
| 20260507121604 | 50 | 352 | 6.0 | 7.0 | 0.00 | 1.13 | 0.39 | 84 | 1012.5 |
| 20260507121404 | 50 | 3 | 6.0 | 8.0 | 0.00 | 1.13 | 0.39 | 75 | 1012.5 |
| 20260507121304 | 50 | 4 | 6.0 | 8.0 | 0.00 | 1.13 | 0.39 | 82 | 1012.8 |
| 20260507121204 | 50 | 7 | 5.0 | 8.0 | 0.00 | 1.13 | 0.39 | 85 | 1012.6 |
| 20260507121104 | 50 | 5 | 5.0 | 8.0 | 0.00 | 1.13 | 0.39 | 83 | 1012.6 |
| 20260507121004 | 50 | 8 | 5.0 | 8.0 | 0.00 | 1.13 | 0.39 | 83 | 1012.7 |
| 20260507120804 | 50 | 17 | 4.0 | 8.0 | 0.00 | 1.13 | 0.39 | 83 | 1012.6 |
| 20260507120704 | 50 | 27 | 4.0 | 8.0 | 0.00 | 1.13 | 0.39 | 87 | 1012.6 |
| 20260507120604 | 50 | 30 | 5.0 | 8.0 | 0.00 | 1.13 | 0.39 | 84 | 1012.7 |
| 20260507120505 | 50 | 34 | 5.0 | 8.0 | 0.00 | 1.13 | 0.39 | 86 | 1012.5 |
| 20260507120404 | 50 | 44 | 5.0 | 8.0 | 0.00 | 1.13 | 0.39 | 86 | 1012.4 |
| 20260507120304 | 50 | 45 | 5.0 | 8.0 | 0.00 | 1.13 | 0.39 | 86 | 1012.7 |
| 20260507120204 | 50 | 46 | 5.0 | 8.0 | 0.00 | 1.13 | 0.39 | 86 | 1012.5 |
| 20260507120104 | 50 | 41 | 6.0 | 11.0 | 0.00 | 1.13 | 0.39 | 86 | 1012.5 |
| 20260507120005 | 50 | 37 | 6.0 | 11.0 | 0.00 | 1.13 | 0.39 | 86 | 1012.7 |
| 20260507115903 | 50 | 40 | 6.0 | 11.0 | 0.00 | 1.13 | 0.39 | 84 | 1012.5 |
| 20260507115804 | 49 | 42 | 6.0 | 11.0 | 0.00 | 1.13 | 0.39 | 87 | 1012.4 |
| 20260507115604 | 49 | 33 | 6.0 | 11.0 | 0.00 | 1.13 | 0.39 | 78 | 1012.6 |
| 20260507115505 | 49 | 27 | 6.0 | 11.0 | 0.00 | 1.13 | 0.39 | 78 | 1012.6 |
| 20260507115404 | 49 | 15 | 6.0 | 11.0 | 0.00 | 1.13 | 0.39 | 78 | 1012.8 |
| 20260507115204 | 48 | 16 | 6.0 | 11.0 | 0.00 | 1.13 | 0.39 | 90 | 1012.6 |
| 20260507115104 | 48 | 17 | 6.0 | 11.0 | 0.00 | 1.13 | 0.39 | 88 | 1012.4 |
| 20260507115004 | 48 | 22 | 5.0 | 8.0 | 0.00 | 1.13 | 0.39 | 89 | 1012.5 |
| 20260507114804 | 48 | 17 | 5.0 | 8.0 | 0.00 | 1.13 | 0.39 | 86 | 1012.4 |
| 20260507114704 | 49 | 13 | 5.0 | 8.0 | 0.00 | 1.13 | 0.39 | 76 | 1012.7 |
| 20260507114604 | 49 | 4 | 5.0 | 8.0 | 0.00 | 1.13 | 0.39 | 76 | 1012.4 |
| 20260507114505 | 49 | 6 | 5.0 | 8.0 | 0.00 | 1.13 | 0.39 | 81 | 1012.6 |
| 20260507114204 | 49 | 19 | 4.0 | 8.0 | 0.00 | 1.13 | 0.39 | 89 | 1012.6 |
| 20260507114004 | 50 | 29 | 5.0 | 8.0 | 0.00 | 1.13 | 0.39 | 92 | 1012.5 |
| 20260507113904 | 49 | 30 | 5.0 | 8.0 | 0.00 | 1.13 | 0.39 | 92 | 1012.6 |
| 20260507113804 | 49 | 28 | 5.0 | 8.0 | 0.00 | 1.13 | 0.39 | 88 | 1012.6 |
| 20260507113704 | 49 | 29 | 5.0 | 8.0 | 0.00 | 1.13 | 0.39 | 88 | 1012.6 |
| 20260507113604 | 49 | 37 | 5.0 | 8.0 | 0.00 | 1.13 | 0.39 | 80 | 1012.5 |
| 20260507113506 | 49 | 44 | 5.0 | 7.0 | 0.00 | 1.13 | 0.39 | 91 | 1012.5 |
| 20260507113304 | 49 | 47 | 5.0 | 7.0 | 0.00 | 1.13 | 0.39 | 87 | 1012.5 |
| 20260507113203 | 49 | 55 | 6.0 | 7.0 | 0.00 | 1.13 | 0.39 | 92 | 1012.8 |
| 20260507113005 | 48 | 70 | 6.0 | 7.0 | 0.00 | 1.13 | 0.39 | 90 | 1012.6 |
| 20260507112903 | 48 | 68 | 6.0 | 7.0 | 0.00 | 1.13 | 0.39 | 83 | 1012.7 |
| 20260507112804 | 47 | 65 | 6.0 | 7.0 | 0.00 | 1.13 | 0.39 | 88 | 1012.5 |
| 20260507112604 | 47 | 60 | 6.0 | 7.0 | 0.00 | 1.13 | 0.39 | 84 | 1012.6 |
| 20260507112505 | 47 | 54 | 6.0 | 7.0 | 0.00 | 1.13 | 0.39 | 80 | 1012.8 |
| 20260507112404 | 47 | 56 | 6.0 | 7.0 | 0.00 | 1.13 | 0.39 | 84 | 1012.6 |
| 20260507112306 | 47 | 57 | 6.0 | 7.0 | 0.00 | 1.13 | 0.39 | 84 | 1012.8 |
| 20260507112204 | 47 | 46 | 6.0 | 7.0 | 0.00 | 1.13 | 0.39 | 84 | 1012.6 |
| 20260507112005 | 48 | 31 | 5.0 | 7.0 | 0.00 | 1.13 | 0.39 | 84 | 1012.7 |
| 20260507111905 | 48 | 35 | 5.0 | 7.0 | 0.00 | 1.13 | 0.39 | 89 | 1012.5 |
| 20260507111704 | 48 | 36 | 5.0 | 7.0 | 0.00 | 1.13 | 0.39 | 90 | 1012.5 |
| 20260507111603 | 48 | 34 | 6.0 | 7.0 | 0.00 | 1.13 | 0.39 | 80 | 1012.4 |
| 20260507111506 | 48 | 32 | 5.0 | 7.0 | 0.00 | 1.13 | 0.39 | 82 | 1012.6 |
| 20260507111404 | 48 | 25 | 5.0 | 7.0 | 0.00 | 1.15 | 0.39 | 82 | 1012.7 |
| 20260507111104 | 47 | 21 | 5.0 | 7.0 | 0.00 | 1.15 | 0.39 | 94 | 1012.6 |
| 20260507111004 | 46 | 15 | 5.0 | 7.0 | 0.00 | 1.15 | 0.39 | 89 | 1012.6 |
| 20260507110904 | 47 | 12 | 5.0 | 9.0 | 0.00 | 1.15 | 0.39 | 95 | 1012.7 |
| 20260507110804 | 47 | 22 | 5.0 | 9.0 | 0.00 | 1.15 | 0.39 | 88 | 1012.7 |
| 20260507110404 | 47 | 29 | 5.0 | 9.0 | 0.00 | 1.15 | 0.39 | 90 | 1012.6 |
| 20260507110204 | 47 | 27 | 5.0 | 9.0 | 0.00 | 1.15 | 0.39 | 89 | 1012.7 |
| 20260507105904 | 47 | 18 | 4.0 | 9.0 | 0.00 | 1.15 | 0.39 | 88 | 1012.7 |
| 20260507105804 | 47 | 5 | 4.0 | 6.0 | 0.00 | 1.15 | 0.39 | 88 | 1012.6 |
| 20260507105604 | 47 | 356 | 4.0 | 6.0 | 0.00 | 1.15 | 0.39 | 99 | 1012.5 |
| 20260507105504 | 47 | 357 | 4.0 | 6.0 | 0.00 | 1.15 | 0.39 | 96 | 1012.7 |
| 20260507105403 | 46 | 356 | 4.0 | 6.0 | 0.00 | 1.16 | 0.39 | 94 | 1012.6 |
| 20260507105306 | 46 | 354 | 4.0 | 6.0 | 0.00 | 1.16 | 0.39 | 97 | 1012.6 |
| 20260507105104 | 47 | 6 | 4.0 | 6.0 | 0.00 | 1.16 | 0.39 | 98 | 1012.8 |
| 20260507104904 | 48 | 22 | 4.0 | 6.0 | 0.00 | 1.17 | 0.39 | 97 | 1012.7 |
| 20260507104804 | 48 | 22 | 4.0 | 6.0 | 0.00 | 1.17 | 0.39 | 96 | 1012.8 |
| 20260507104704 | 48 | 27 | 4.0 | 6.0 | 0.00 | 1.17 | 0.39 | 98 | 1012.6 |
| 20260507104604 | 48 | 22 | 4.0 | 6.0 | 0.00 | 1.17 | 0.39 | 97 | 1012.7 |
| 20260507104504 | 47 | 25 | 4.0 | 6.0 | 0.00 | 1.17 | 0.39 | 94 | 1012.6 |
| 20260507104404 | 46 | 14 | 4.0 | 6.0 | 0.00 | 1.18 | 0.39 | 96 | 1012.5 |
| 20260507104104 | 46 | 24 | 4.0 | 7.0 | 0.00 | 1.18 | 0.39 | 96 | 1012.6 |
| 20260507104004 | 45 | 18 | 4.0 | 7.0 | 0.00 | 1.18 | 0.39 | 99 | 1012.6 |
| 20260507103904 | 45 | 13 | 4.0 | 7.0 | 0.00 | 1.19 | 0.39 | 99 | 1012.7 |
| 20260507103803 | 45 | 14 | 4.0 | 7.0 | 0.00 | 1.19 | 0.39 | 99 | 1012.8 |
| 20260507103704 | 44 | 14 | 4.0 | 7.0 | 0.00 | 1.19 | 0.39 | 99 | 1012.5 |
| 20260507103505 | 44 | 9 | 4.0 | 7.0 | 0.00 | 1.19 | 0.39 | 99 | 1012.7 |
| 20260507103204 | 45 | 352 | 4.0 | 8.0 | 0.00 | 1.19 | 0.39 | 99 | 1012.6 |
| 20260507103004 | 45 | 337 | 4.0 | 8.0 | 0.00 | 1.19 | 0.39 | 99 | 1012.6 |
| 20260507102904 | 45 | 332 | 4.0 | 8.0 | 0.00 | 1.20 | 0.39 | 99 | 1012.7 |
| 20260507102803 | 44 | 330 | 5.0 | 8.0 | 0.00 | 1.20 | 0.39 | 99 | 1012.6 |
| 20260507102704 | 44 | 330 | 5.0 | 8.0 | 0.00 | 1.20 | 0.39 | 99 | 1012.6 |
| 20260507102504 | 44 | 335 | 5.0 | 8.0 | 0.00 | 1.20 | 0.39 | 99 | 1012.7 |
| 20260507102404 | 43 | 335 | 5.0 | 8.0 | 0.00 | 1.23 | 0.39 | 99 | 1012.6 |
| 20260507102306 | 43 | 335 | 5.0 | 8.0 | 0.00 | 1.23 | 0.39 | 99 | 1012.7 |
| 20260507102204 | 44 | 333 | 5.0 | 8.0 | 0.00 | 1.23 | 0.39 | 99 | 1012.8 |
| 20260507102104 | 44 | 332 | 5.0 | 8.0 | 0.00 | 1.23 | 0.39 | 99 | 1012.8 |
| 20260507102006 | 44 | 336 | 5.0 | 8.0 | 0.00 | 1.23 | 0.39 | 99 | 1012.6 |
| 20260507101904 | 45 | 339 | 4.0 | 7.0 | 0.00 | 1.25 | 0.39 | 99 | 1012.7 |
| 20260507101803 | 45 | 340 | 4.0 | 7.0 | 0.00 | 1.25 | 0.39 | 99 | 1012.5 |
| 20260507101704 | 45 | 341 | 3.0 | 4.0 | 0.00 | 1.25 | 0.39 | 99 | 1012.8 |
| 20260507101604 | 45 | 340 | 3.0 | 4.0 | 0.00 | 1.25 | 0.39 | 99 | 1012.5 |
| 20260507101507 | 45 | 338 | 3.0 | 4.0 | 0.00 | 1.25 | 0.39 | 99 | 1012.6 |
| 20260507101404 | 45 | 338 | 3.0 | 7.0 | 0.00 | 1.29 | 0.39 | 99 | 1012.7 |
| 20260507101304 | 45 | 339 | 3.0 | 7.0 | 0.00 | 1.29 | 0.39 | 99 | 1012.8 |
| 20260507101203 | 45 | 338 | 3.0 | 7.0 | 0.00 | 1.29 | 0.39 | 99 | 1012.6 |
| 20260507101104 | 45 | 337 | 3.0 | 7.0 | 0.00 | 1.29 | 0.39 | 99 | 1012.7 |
| 20260507101004 | 44 | 336 | 3.0 | 7.0 | 0.00 | 1.29 | 0.39 | 99 | 1012.7 |
| 20260507100904 | 44 | 333 | 3.0 | 7.0 | 0.00 | 1.30 | 0.39 | 99 | 1012.7 |
| 20260507100505 | 44 | 325 | 3.0 | 7.0 | 0.00 | 1.30 | 0.39 | 99 | 1012.6 |
| 20260507100404 | 44 | 321 | 3.0 | 7.0 | 0.00 | 1.31 | 0.39 | 99 | 1012.6 |
| 20260507100203 | 44 | 323 | 3.0 | 6.0 | 0.00 | 1.31 | 0.39 | 99 | 1012.8 |
| 20260507100005 | 43 | 332 | 2.0 | 6.0 | 0.00 | 1.31 | 0.39 | 99 | 1012.7 |
| 20260507095904 | 42 | 337 | 2.0 | 2.0 | 0.00 | 1.31 | 0.39 | 99 | 1012.6 |
| 20260507095804 | 42 | 342 | 2.0 | 2.0 | 0.00 | 1.31 | 0.39 | 99 | 1012.6 |
| 20260507095704 | 42 | 349 | 2.0 | 2.0 | 0.00 | 1.31 | 0.39 | 99 | 1012.5 |
| 20260507095604 | 42 | 355 | 2.0 | 2.0 | 0.00 | 1.31 | 0.39 | 99 | 1012.6 |
| 20260507095404 | 42 | 5 | 2.0 | 2.0 | 0.00 | 1.31 | 0.39 | 99 | 1012.6 |
| 20260507095305 | 42 | 3 | 2.0 | 2.0 | 0.00 | 1.31 | 0.39 | 99 | 1012.8 |
| 20260507095204 | 42 | 353 | 2.0 | 2.0 | 0.00 | 1.31 | 0.39 | 99 | 1012.5 |
| 20260507095104 | 42 | 350 | 1.0 | 2.0 | 0.00 | 1.31 | 0.39 | 99 | 1012.8 |
| 20260507095005 | 42 | 351 | 1.0 | 4.0 | 0.00 | 1.31 | 0.39 | 99 | 1012.7 |
| 20260507094904 | 41 | 8 | 1.0 | 4.0 | 0.00 | 1.32 | 0.39 | 99 | 1012.5 |
| 20260507094804 | 41 | 7 | 1.0 | 4.0 | 0.00 | 1.32 | 0.39 | 99 | 1012.8 |
| 20260507094603 | 41 | 309 | 1.0 | 4.0 | 0.00 | 1.32 | 0.39 | 99 | 1012.6 |
| 20260507094504 | 40 | 294 | 1.0 | 4.0 | 0.00 | 1.32 | 0.39 | 99 | 1012.8 |
| 20260507094403 | 41 | 288 | 1.0 | 4.0 | 0.00 | 1.32 | 0.39 | 99 | 1012.8 |
| 20260507094304 | 41 | 307 | 1.0 | 4.0 | 0.00 | 1.32 | 0.39 | 99 | 1012.8 |
| 20260507094204 | 41 | 300 | 1.0 | 4.0 | 0.00 | 1.32 | 0.39 | 99 | 1012.6 |
| 20260507094104 | 42 | 292 | 1.0 | 4.0 | 0.00 | 1.32 | 0.39 | 99 | 1012.8 |
| 20260507094006 | 42 | 300 | 1.0 | 4.0 | 0.00 | 1.32 | 0.39 | 99 | 1012.9 |
| 20260507093904 | 42 | 296 | 1.0 | 4.0 | 0.00 | 1.33 | 0.39 | 99 | 1012.6 |
| 20260507093804 | 42 | 296 | 1.0 | 4.0 | 0.00 | 1.33 | 0.39 | 99 | 1012.8 |
| 20260507093604 | 41 | 5 | 1.0 | 2.0 | 0.00 | 1.33 | 0.39 | 99 | 1012.8 |
| 20260507093508 | 40 | 5 | 1.0 | 2.0 | 0.00 | 1.33 | 0.39 | 99 | 1012.7 |
| 20260507093404 | 40 | 5 | 1.0 | 2.0 | 0.00 | 1.33 | 0.39 | 99 | 1012.8 |
| 20260507093305 | 39 | 8 | 2.0 | 2.0 | 0.00 | 1.33 | 0.39 | 99 | 1012.9 |
| 20260507092903 | 41 | 43 | 1.0 | 4.0 | 0.00 | 1.35 | 0.39 | 99 | 1012.8 |
| 20260507092803 | 40 | 39 | 2.0 | 4.0 | 0.00 | 1.35 | 0.39 | 99 | 1012.6 |
| 20260507092704 | 40 | 27 | 2.0 | 4.0 | 0.00 | 1.35 | 0.39 | 99 | 1012.5 |
| 20260507092604 | 40 | 23 | 2.0 | 4.0 | 0.00 | 1.35 | 0.39 | 99 | 1012.6 |
| 20260507092403 | 40 | 357 | 2.0 | 4.0 | 0.00 | 1.36 | 0.39 | 99 | 1012.6 |
| 20260507092307 | 40 | 1 | 2.0 | 4.0 | 0.00 | 1.36 | 0.39 | 99 | 1012.6 |
| 20260507092204 | 40 | 1 | 3.0 | 4.0 | 0.01 | 1.36 | 0.39 | 99 | 1012.7 |
| 20260507092005 | 41 | 342 | 2.0 | 4.0 | 0.01 | 1.36 | 0.39 | 99 | 1012.8 |
| 20260507091804 | 40 | 315 | 2.0 | 4.0 | 0.01 | 1.36 | 0.39 | 99 | 1012.6 |
| 20260507091603 | 40 | 316 | 2.0 | 4.0 | 0.02 | 1.36 | 0.39 | 99 | 1012.7 |
| 20260507091504 | 40 | 320 | 1.0 | 4.0 | 0.02 | 1.36 | 0.39 | 99 | 1012.6 |
| 20260507091403 | 40 | 319 | 1.0 | 2.0 | 0.02 | 1.36 | 0.39 | 99 | 1012.8 |
| 20260507091304 | 40 | 313 | 1.0 | 2.0 | 0.02 | 1.36 | 0.39 | 99 | 1012.7 |
| 20260507091204 | 40 | 322 | 1.0 | 2.0 | 0.02 | 1.36 | 0.39 | 99 | 1012.7 |
| 20260507091104 | 40 | 328 | 1.0 | 2.0 | 0.04 | 1.36 | 0.39 | 99 | 1012.9 |
| 20260507090904 | 40 | 343 | 2.0 | 4.0 | 0.04 | 1.36 | 0.39 | 99 | 1012.6 |
| 20260507090803 | 40 | 346 | 2.0 | 4.0 | 0.04 | 1.36 | 0.39 | 99 | 1012.7 |
| 20260507090603 | 40 | 349 | 2.0 | 4.0 | 0.04 | 1.36 | 0.39 | 99 | 1012.7 |
| 20260507090504 | 40 | 339 | 2.0 | 4.0 | 0.04 | 1.36 | 0.39 | 99 | 1012.6 |
| 20260507090403 | 40 | 331 | 2.0 | 4.0 | 0.04 | 1.36 | 0.39 | 99 | 1012.7 |
| 20260507090304 | 40 | 324 | 3.0 | 4.0 | 0.04 | 1.36 | 0.39 | 99 | 1012.5 |
| 20260507090204 | 40 | 323 | 3.0 | 4.0 | 0.05 | 1.36 | 0.39 | 99 | 1012.6 |
| 20260507090104 | 40 | 322 | 2.0 | 4.0 | 0.05 | 1.36 | 0.39 | 99 | 1012.5 |
| 20260507090005 | 41 | 319 | 2.0 | 4.0 | 0.05 | 1.36 | 0.39 | 99 | 1012.6 |
| 20260507085904 | 41 | 312 | 2.0 | 4.0 | 0.05 | 1.36 | 0.39 | 99 | 1012.8 |
| 20260507085803 | 42 | 305 | 2.0 | 6.0 | 0.05 | 1.36 | 0.39 | 99 | 1012.8 |
| 20260507085704 | 42 | 307 | 3.0 | 6.0 | 0.05 | 1.36 | 0.39 | 99 | 1012.5 |
| 20260507085604 | 43 | 309 | 3.0 | 6.0 | 0.05 | 1.36 | 0.39 | 99 | 1012.7 |
| 20260507085505 | 43 | 315 | 2.0 | 6.0 | 0.06 | 1.36 | 0.39 | 99 | 1012.5 |
| 20260507085204 | 43 | 337 | 2.0 | 6.0 | 0.06 | 1.36 | 0.39 | 99 | 1012.6 |
| 20260507085104 | 42 | 337 | 2.0 | 6.0 | 0.06 | 1.36 | 0.39 | 99 | 1012.6 |
| 20260507085005 | 42 | 337 | 2.0 | 6.0 | 0.06 | 1.36 | 0.39 | 99 | 1012.7 |
| 20260507084904 | 42 | 337 | 2.0 | 6.0 | 0.06 | 1.36 | 0.39 | 99 | 1012.6 |
| 20260507084804 | 42 | 352 | 2.0 | 6.0 | 0.06 | 1.36 | 0.39 | 99 | 1012.6 |
| 20260507084704 | 41 | 352 | 2.0 | 4.0 | 0.06 | 1.36 | 0.39 | 99 | 1012.4 |
| 20260507084604 | 40 | 354 | 2.0 | 2.0 | 0.06 | 1.36 | 0.39 | 99 | 1012.5 |
| 20260507084505 | 40 | 351 | 2.0 | 2.0 | 0.07 | 1.36 | 0.39 | 99 | 1012.7 |
| 20260507084404 | 40 | 340 | 2.0 | 4.0 | 0.07 | 1.37 | 0.39 | 99 | 1012.6 |
| 20260507084304 | 42 | 338 | 2.0 | 4.0 | 0.07 | 1.37 | 0.39 | 99 | 1012.6 |
| 20260507084103 | 41 | 324 | 2.0 | 4.0 | 0.08 | 1.37 | 0.39 | 99 | 1012.4 |
| 20260507084004 | 41 | 320 | 2.0 | 4.0 | 0.08 | 1.37 | 0.39 | 99 | 1012.6 |
| 20260507083904 | 40 | 317 | 2.0 | 4.0 | 0.08 | 1.37 | 0.39 | 99 | 1012.4 |
| 20260507083704 | 40 | 309 | 2.0 | 4.0 | 0.08 | 1.37 | 0.39 | 99 | 1012.6 |
| 20260507083603 | 40 | 310 | 2.0 | 4.0 | 0.08 | 1.37 | 0.39 | 99 | 1012.5 |
| 20260507083504 | 40 | 314 | 2.0 | 4.0 | 0.08 | 1.37 | 0.39 | 99 | 1012.6 |
| 20260507083303 | 40 | 322 | 3.0 | 4.0 | 0.09 | 1.39 | 0.39 | 99 | 1012.5 |
| 20260507083204 | 40 | 324 | 3.0 | 4.0 | 0.09 | 1.39 | 0.39 | 99 | 1012.6 |
| 20260507083104 | 40 | 326 | 3.0 | 4.0 | 0.09 | 1.39 | 0.39 | 99 | 1012.4 |
| 20260507083005 | 40 | 327 | 2.0 | 4.0 | 0.09 | 1.39 | 0.39 | 99 | 1012.5 |
| 20260507082904 | 40 | 328 | 2.0 | 4.0 | 0.11 | 1.41 | 0.39 | 99 | 1012.5 |
| 20260507082703 | 39 | 333 | 2.0 | 4.0 | 0.11 | 1.41 | 0.39 | 99 | 1012.5 |
| 20260507082603 | 40 | 335 | 2.0 | 4.0 | 0.12 | 1.41 | 0.39 | 99 | 1012.5 |
| 20260507082504 | 40 | 335 | 2.0 | 4.0 | 0.12 | 1.41 | 0.39 | 99 | 1012.5 |
| 20260507082404 | 40 | 326 | 1.0 | 4.0 | 0.12 | 1.41 | 0.39 | 99 | 1012.5 |
| 20260507082306 | 40 | 317 | 1.0 | 4.0 | 0.11 | 1.39 | 0.38 | 99 | 1012.5 |
| 20260507082204 | 40 | 313 | 1.0 | 4.0 | 0.11 | 1.39 | 0.38 | 99 | 1012.6 |
| 20260507082104 | 40 | 313 | 1.0 | 4.0 | 0.11 | 1.39 | 0.38 | 99 | 1012.6 |
| 20260507082004 | 40 | 317 | 1.0 | 4.0 | 0.11 | 1.39 | 0.38 | 99 | 1012.4 |
| 20260507081904 | 39 | 321 | 1.0 | 4.0 | 0.11 | 1.39 | 0.38 | 99 | 1012.6 |
| 20260507081704 | 38 | 338 | 1.0 | 4.0 | 0.09 | 1.38 | 0.37 | 99 | 1012.4 |
| 20260507081604 | 38 | 338 | 1.0 | 4.0 | 0.11 | 1.38 | 0.37 | 99 | 1012.5 |
| 20260507081505 | 38 | 338 | 1.0 | 4.0 | 0.11 | 1.38 | 0.37 | 99 | 1012.5 |
| 20260507081404 | 38 | 338 | 1.0 | 4.0 | 0.11 | 1.39 | 0.37 | 99 | 1012.3 |
| 20260507081304 | 38 | 342 | 1.0 | 4.0 | 0.12 | 1.39 | 0.37 | 99 | 1012.4 |
| 20260507081104 | 38 | 355 | 1.0 | 4.0 | 0.11 | 1.38 | 0.35 | 99 | 1012.1 |
| 20260507081004 | 38 | 348 | 1.0 | 4.0 | 0.11 | 1.38 | 0.35 | 99 | 1012.2 |
| 20260507080704 | 38 | 323 | 1.0 | 2.0 | 0.12 | 1.38 | 0.35 | 99 | 1012.4 |
| 20260507080604 | 38 | 327 | 1.0 | 2.0 | 0.12 | 1.38 | 0.35 | 99 | 1012.3 |
| 20260507080505 | 37 | 332 | 1.0 | 2.0 | 0.12 | 1.38 | 0.35 | 99 | 1012.3 |
| 20260507080404 | 37 | 336 | 1.0 | 2.0 | 0.13 | 1.38 | 0.35 | 99 | 1012.2 |
| 20260507080304 | 37 | 336 | 1.0 | 2.0 | 0.12 | 1.37 | 0.34 | 99 | 1012.2 |
| 20260507080203 | 38 | 334 | 1.0 | 2.0 | 0.12 | 1.37 | 0.34 | 99 | 1012.4 |
| 20260507080104 | 38 | 329 | 2.0 | 2.0 | 0.12 | 1.37 | 0.34 | 99 | 1012.2 |
| 20260507080004 | 38 | 330 | 2.0 | 2.0 | 0.13 | 1.37 | 0.34 | 99 | 1012.3 |
| 20260507075904 | 38 | 334 | 2.0 | 2.0 | 0.13 | 1.37 | 0.34 | 99 | 1012.2 |
| 20260507075804 | 39 | 334 | 2.0 | 2.0 | 0.13 | 1.37 | 0.34 | 99 | 1012.2 |
| 20260507075704 | 39 | 334 | 2.0 | 2.0 | 0.13 | 1.37 | 0.34 | 99 | 1012.1 |
| 20260507075505 | 39 | 333 | 1.0 | 2.0 | 0.13 | 1.36 | 0.33 | 99 | 1012.2 |
| 20260507075306 | 38 | 330 | 1.0 | 2.0 | 0.13 | 1.36 | 0.33 | 99 | 1012.2 |
| 20260507075203 | 38 | 334 | 1.0 | 2.0 | 0.13 | 1.36 | 0.33 | 99 | 1012.2 |
| 20260507075104 | 38 | 338 | 1.0 | 2.0 | 0.13 | 1.36 | 0.33 | 99 | 1012.2 |
| 20260507075004 | 38 | 337 | 1.0 | 2.0 | 0.13 | 1.36 | 0.33 | 99 | 1012.2 |
| 20260507074804 | 38 | 331 | 1.0 | 2.0 | 0.13 | 1.36 | 0.33 | 99 | 1012.2 |
| 20260507074704 | 38 | 331 | 1.0 | 2.0 | 0.13 | 1.36 | 0.33 | 99 | 1012.2 |
| 20260507074604 | 38 | 331 | 1.0 | 2.0 | 0.12 | 1.35 | 0.32 | 99 | 1012.2 |
| 20260507074505 | 38 | 323 | 1.0 | 2.0 | 0.13 | 1.35 | 0.32 | 99 | 1012.1 |
| 20260507074404 | 38 | 325 | 1.0 | 2.0 | 0.13 | 1.35 | 0.32 | 99 | 1012.1 |
| 20260507074303 | 38 | 325 | 1.0 | 2.0 | 0.13 | 1.35 | 0.32 | 99 | 1012.2 |
| 20260507074203 | 38 | 327 | 1.0 | 2.0 | 0.13 | 1.35 | 0.32 | 99 | 1012.2 |
| 20260507074104 | 38 | 325 | 1.0 | 2.0 | 0.12 | 1.33 | 0.31 | 99 | 1012.3 |
| 20260507074005 | 38 | 325 | 1.0 | 2.0 | 0.12 | 1.33 | 0.31 | 99 | 1012.1 |
| 20260507073904 | 38 | 325 | 1.0 | 2.0 | 0.12 | 1.33 | 0.31 | 99 | 1012.2 |
| 20260507073804 | 38 | 327 | 1.0 | 2.0 | 0.13 | 1.33 | 0.31 | 99 | 1012.2 |
| 20260507073704 | 38 | 328 | 1.0 | 2.0 | 0.13 | 1.33 | 0.31 | 99 | 1012.3 |
| 20260507073604 | 37 | 329 | 1.0 | 2.0 | 0.13 | 1.33 | 0.31 | 99 | 1012.3 |
| 20260507073504 | 38 | 330 | 2.0 | 2.0 | 0.13 | 1.33 | 0.31 | 99 | 1012.2 |
| 20260507073404 | 38 | 321 | 2.0 | 4.0 | 0.12 | 1.32 | 0.30 | 99 | 1012.3 |
| 20260507073104 | 38 | 306 | 2.0 | 4.0 | 0.13 | 1.32 | 0.30 | 99 | 1012.1 |
| 20260507073004 | 38 | 308 | 2.0 | 4.0 | 0.12 | 1.31 | 0.28 | 99 | 1012.2 |
| 20260507072903 | 38 | 311 | 2.0 | 4.0 | 0.12 | 1.31 | 0.28 | 99 | 1012.0 |
| 20260507072804 | 37 | 317 | 2.0 | 4.0 | 0.12 | 1.31 | 0.28 | 99 | 1011.9 |
| 20260507072704 | 37 | 316 | 2.0 | 4.0 | 0.12 | 1.31 | 0.28 | 99 | 1012.3 |
| 20260507072604 | 37 | 318 | 2.0 | 4.0 | 0.11 | 1.30 | 0.27 | 99 | 1012.2 |
| 20260507072504 | 37 | 320 | 2.0 | 4.0 | 0.12 | 1.30 | 0.27 | 99 | 1012.1 |
| 20260507072404 | 37 | 327 | 2.0 | 4.0 | 0.12 | 1.31 | 0.27 | 99 | 1012.1 |
| 20260507072306 | 37 | 332 | 2.0 | 4.0 | 0.12 | 1.31 | 0.27 | 99 | 1012.2 |
| 20260507072204 | 38 | 333 | 2.0 | 4.0 | 0.12 | 1.31 | 0.27 | 99 | 1012.1 |
| 20260507072104 | 38 | 338 | 2.0 | 4.0 | 0.12 | 1.31 | 0.27 | 99 | 1012.0 |
| 20260507072004 | 38 | 341 | 2.0 | 4.0 | 0.12 | 1.31 | 0.27 | 99 | 1011.8 |
| 20260507071904 | 38 | 342 | 1.0 | 4.0 | 0.12 | 1.31 | 0.27 | 99 | 1012.1 |
| 20260507071803 | 39 | 329 | 1.0 | 2.0 | 0.12 | 1.31 | 0.27 | 99 | 1012.2 |
| 20260507071703 | 39 | 325 | 1.0 | 2.0 | 0.11 | 1.30 | 0.26 | 99 | 1012.1 |
| 20260507071604 | 39 | 314 | 1.0 | 2.0 | 0.11 | 1.30 | 0.26 | 99 | 1012.0 |
| 20260507071404 | 39 | 316 | 1.0 | 4.0 | 0.11 | 1.30 | 0.26 | 99 | 1012.1 |
| 20260507071304 | 39 | 318 | 1.0 | 4.0 | 0.11 | 1.29 | 0.25 | 99 | 1011.9 |
| 20260507071005 | 39 | 319 | 1.0 | 4.0 | 0.11 | 1.29 | 0.25 | 99 | 1011.8 |
| 20260507070904 | 38 | 321 | 1.0 | 4.0 | 0.09 | 1.28 | 0.24 | 99 | 1012.0 |
| 20260507070804 | 38 | 326 | 2.0 | 4.0 | 0.09 | 1.28 | 0.24 | 99 | 1011.7 |
| 20260507070604 | 37 | 332 | 2.0 | 4.0 | 0.09 | 1.28 | 0.24 | 99 | 1011.9 |
| 20260507070504 | 38 | 329 | 2.0 | 4.0 | 0.08 | 1.26 | 0.22 | 99 | 1011.9 |
| 20260507070303 | 38 | 322 | 2.0 | 4.0 | 0.08 | 1.26 | 0.22 | 99 | 1011.9 |
| 20260507070204 | 38 | 326 | 2.0 | 4.0 | 0.08 | 1.26 | 0.22 | 99 | 1011.9 |
| 20260507065904 | 38 | 327 | 2.0 | 4.0 | 0.07 | 1.25 | 0.21 | 99 | 1011.8 |
| 20260507065804 | 38 | 324 | 1.0 | 4.0 | 0.07 | 1.25 | 0.21 | 99 | 1011.9 |
| 20260507065704 | 38 | 317 | 1.0 | 4.0 | 0.07 | 1.25 | 0.21 | 99 | 1011.8 |
| 20260507065603 | 38 | 319 | 1.0 | 4.0 | 0.06 | 1.24 | 0.20 | 99 | 1011.9 |
| 20260507065504 | 38 | 322 | 1.0 | 4.0 | 0.06 | 1.24 | 0.20 | 99 | 1011.8 |
| 20260507065404 | 39 | 325 | 1.0 | 4.0 | 0.06 | 1.24 | 0.20 | 99 | 1012.1 |
| 20260507065306 | 39 | 333 | 1.0 | 4.0 | 0.06 | 1.24 | 0.20 | 99 | 1011.9 |
| 20260507065204 | 38 | 315 | 0.0 | 2.0 | 0.06 | 1.24 | 0.20 | 99 | 1011.9 |
| 20260507065104 | 38 | 315 | 0.0 | 2.0 | 0.06 | 1.24 | 0.20 | 99 | 1011.8 |
| 20260507064804 | 37 | 315 | 0.0 | 2.0 | 0.06 | 1.24 | 0.20 | 99 | 1011.9 |
| 20260507064704 | 37 | 322 | 0.0 | 2.0 | 0.06 | 1.24 | 0.20 | 99 | 1011.8 |
| 20260507064604 | 36 | 314 | 0.0 | 2.0 | 0.05 | 1.23 | 0.19 | 99 | 1011.8 |
| 20260507064504 | 36 | 314 | 0.0 | 2.0 | 0.05 | 1.23 | 0.19 | 99 | 1011.7 |
| 20260507064303 | 36 | 314 | 0.0 | 2.0 | 0.05 | 1.23 | 0.19 | 99 | 1011.8 |
| 20260507064204 | 37 | 325 | 0.0 | 2.0 | 0.05 | 1.23 | 0.19 | 99 | 1011.8 |
| 20260507064105 | 37 | 325 | 0.0 | 2.0 | 0.05 | 1.23 | 0.19 | 99 | 1011.9 |
| 20260507064005 | 37 | 317 | 1.0 | 2.0 | 0.05 | 1.23 | 0.19 | 99 | 1011.9 |
| 20260507063904 | 37 | 316 | 1.0 | 2.0 | 0.04 | 1.22 | 0.18 | 99 | 1012.1 |
| 20260507063804 | 37 | 316 | 1.0 | 2.0 | 0.04 | 1.22 | 0.18 | 99 | 1011.8 |
| 20260507063703 | 37 | 316 | 1.0 | 2.0 | 0.04 | 1.22 | 0.18 | 99 | 1011.8 |
| 20260507063403 | 37 | 316 | 1.0 | 2.0 | 0.05 | 1.22 | 0.18 | 99 | 1011.8 |
| 20260507063303 | 37 | 317 | 0.0 | 2.0 | 0.05 | 1.22 | 0.18 | 99 | 1011.6 |
| 20260507063204 | 37 | 307 | 0.0 | 2.0 | 0.04 | 1.20 | 0.17 | 99 | 1011.7 |
| 20260507063104 | 37 | 307 | 0.0 | 2.0 | 0.04 | 1.20 | 0.17 | 99 | 1011.6 |
| 20260507063005 | 38 | 314 | 0.0 | 2.0 | 0.04 | 1.20 | 0.17 | 99 | 1011.8 |
| 20260507062904 | 38 | 314 | 0.0 | 2.0 | 0.04 | 1.20 | 0.17 | 99 | 1011.7 |
| 20260507062804 | 38 | 0 | 0.0 | 0.0 | 0.04 | 1.20 | 0.17 | 99 | 1011.8 |
| 20260507062703 | 37 | 0 | 0.0 | 0.0 | 0.04 | 1.20 | 0.17 | 99 | 1011.8 |
| 20260507062603 | 37 | 0 | 0.0 | 0.0 | 0.02 | 1.19 | 0.15 | 99 | 1011.7 |
| 20260507062504 | 37 | 0 | 0.0 | 0.0 | 0.02 | 1.19 | 0.15 | 99 | 1011.7 |
| 20260507062306 | 37 | 0 | 0.0 | 0.0 | 0.02 | 1.19 | 0.15 | 99 | 1011.8 |
| 20260507062204 | 36 | 0 | 0.0 | 0.0 | 0.02 | 1.19 | 0.15 | 99 | 1011.7 |
| 20260507062103 | 35 | 0 | 0.0 | 0.0 | 0.02 | 1.19 | 0.15 | 99 | 1011.6 |
| 20260507062004 | 35 | 0 | 0.0 | 0.0 | 0.02 | 1.19 | 0.15 | 99 | 1011.8 |
| 20260507061803 | 35 | 0 | 0.0 | 0.0 | 0.02 | 1.19 | 0.15 | 99 | 1011.9 |
| 20260507061703 | 35 | 0 | 0.0 | 0.0 | 0.02 | 1.19 | 0.15 | 99 | 1011.7 |
| 20260507061603 | 35 | 0 | 0.0 | 0.0 | 0.02 | 1.19 | 0.15 | 99 | 1011.7 |
| 20260507061504 | 35 | 0 | 0.0 | 0.0 | 0.02 | 1.19 | 0.15 | 99 | 1011.7 |
| 20260507061403 | 35 | 0 | 0.0 | 0.0 | 0.01 | 1.18 | 0.14 | 99 | 1011.6 |
| 20260507061304 | 35 | 0 | 0.0 | 0.0 | 0.01 | 1.18 | 0.14 | 99 | 1011.6 |
| 20260507061104 | 35 | 0 | 0.0 | 0.0 | 0.01 | 1.18 | 0.14 | 99 | 1011.7 |
| 20260507060904 | 35 | 0 | 0.0 | 0.0 | 0.01 | 1.18 | 0.14 | 99 | 1011.7 |
| 20260507060803 | 35 | 0 | 0.0 | 0.0 | 0.02 | 1.18 | 0.14 | 99 | 1011.7 |
| 20260507060704 | 35 | 0 | 0.0 | 0.0 | 0.02 | 1.18 | 0.14 | 99 | 1011.7 |
| 20260507060604 | 35 | 0 | 0.0 | 0.0 | 0.02 | 1.18 | 0.14 | 99 | 1011.6 |
| 20260507060505 | 35 | 0 | 0.0 | 0.0 | 0.02 | 1.18 | 0.14 | 99 | 1011.8 |
| 20260507060404 | 35 | 0 | 0.0 | 0.0 | 0.02 | 1.20 | 0.14 | 99 | 1011.7 |
| 20260507060304 | 35 | 0 | 0.0 | 0.0 | 0.02 | 1.20 | 0.14 | 99 | 1011.8 |
| 20260507060104 | 35 | 0 | 0.0 | 0.0 | 0.02 | 1.20 | 0.14 | 99 | 1011.7 |
| 20260507060004 | 35 | 0 | 0.0 | 0.0 | 0.02 | 1.20 | 0.14 | 99 | 1011.7 |
| 20260507055903 | 35 | 0 | 0.0 | 0.0 | 0.02 | 1.20 | 0.14 | 99 | 1011.6 |
| 20260507055804 | 35 | 0 | 0.0 | 0.0 | 0.02 | 1.20 | 0.14 | 99 | 1011.6 |
| 20260507055704 | 35 | 0 | 0.0 | 0.0 | 0.02 | 1.20 | 0.14 | 99 | 1011.9 |
| 20260507055404 | 35 | 0 | 0.0 | 0.0 | 0.02 | 1.22 | 0.14 | 99 | 1011.6 |
| 20260507055306 | 35 | 0 | 0.0 | 0.0 | 0.02 | 1.22 | 0.14 | 99 | 1011.5 |
| 20260507055104 | 34 | 0 | 0.0 | 0.0 | 0.02 | 1.22 | 0.14 | 99 | 1011.6 |
| 20260507054904 | 34 | 0 | 0.0 | 0.0 | 0.02 | 1.22 | 0.14 | 99 | 1011.7 |
| 20260507054804 | 34 | 0 | 0.0 | 0.0 | 0.02 | 1.22 | 0.14 | 99 | 1011.5 |
| 20260507054704 | 34 | 0 | 0.0 | 0.0 | 0.02 | 1.22 | 0.14 | 99 | 1011.4 |
| 20260507054603 | 34 | 0 | 0.0 | 0.0 | 0.02 | 1.22 | 0.14 | 99 | 1011.6 |
| 20260507054504 | 34 | 0 | 0.0 | 0.0 | 0.04 | 1.22 | 0.14 | 99 | 1011.7 |
| 20260507054304 | 33 | 0 | 0.0 | 0.0 | 0.04 | 1.22 | 0.14 | 99 | 1011.6 |
| 20260507054204 | 33 | 0 | 0.0 | 0.0 | 0.04 | 1.22 | 0.14 | 99 | 1011.5 |
| 20260507054104 | 33 | 0 | 0.0 | 0.0 | 0.04 | 1.22 | 0.14 | 99 | 1011.5 |
| 20260507054004 | 33 | 0 | 0.0 | 0.0 | 0.04 | 1.22 | 0.14 | 99 | 1011.5 |
| 20260507053904 | 33 | 0 | 0.0 | 0.0 | 0.04 | 1.24 | 0.14 | 99 | 1011.6 |
| 20260507053803 | 33 | 0 | 0.0 | 0.0 | 0.04 | 1.24 | 0.14 | 99 | 1011.5 |
| 20260507053604 | 33 | 0 | 0.0 | 0.0 | 0.02 | 1.23 | 0.13 | 99 | 1011.5 |
| 20260507053504 | 33 | 0 | 0.0 | 0.0 | 0.02 | 1.23 | 0.13 | 99 | 1011.4 |
| 20260507053404 | 33 | 0 | 0.0 | 0.0 | 0.02 | 1.23 | 0.13 | 99 | 1011.4 |
| 20260507053304 | 32 | 0 | 0.0 | 0.0 | 0.02 | 1.23 | 0.13 | 99 | 1011.5 |
| 20260507053204 | 32 | 0 | 0.0 | 0.0 | 0.02 | 1.23 | 0.13 | 99 | 1011.7 |
| 20260507053005 | 33 | 0 | 0.0 | 0.0 | 0.02 | 1.23 | 0.13 | 99 | 1011.5 |
| 20260507052904 | 33 | 0 | 0.0 | 0.0 | 0.02 | 1.23 | 0.13 | 99 | 1011.6 |
| 20260507052803 | 33 | 0 | 0.0 | 0.0 | 0.02 | 1.23 | 0.13 | 99 | 1011.4 |
| 20260507052704 | 33 | 0 | 0.0 | 0.0 | 0.02 | 1.23 | 0.13 | 99 | 1011.2 |
| 20260507052604 | 33 | 0 | 0.0 | 0.0 | 0.02 | 1.23 | 0.13 | 99 | 1011.4 |
| 20260507052505 | 33 | 0 | 0.0 | 0.0 | 0.02 | 1.23 | 0.13 | 99 | 1011.4 |
| 20260507052404 | 32 | 135 | 0.0 | 2.0 | 0.02 | 1.23 | 0.13 | 99 | 1011.6 |
| 20260507052306 | 32 | 135 | 0.0 | 2.0 | 0.02 | 1.23 | 0.13 | 99 | 1011.5 |
| 20260507052203 | 32 | 135 | 0.0 | 2.0 | 0.02 | 1.23 | 0.13 | 99 | 1011.5 |
| 20260507051903 | 32 | 150 | 0.0 | 2.0 | 0.04 | 1.23 | 0.13 | 99 | 1011.5 |
| 20260507051803 | 32 | 153 | 1.0 | 2.0 | 0.04 | 1.23 | 0.13 | 99 | 1011.3 |
| 20260507051704 | 32 | 154 | 1.0 | 2.0 | 0.04 | 1.23 | 0.13 | 99 | 1011.4 |
| 20260507051604 | 32 | 155 | 1.0 | 2.0 | 0.04 | 1.23 | 0.13 | 99 | 1011.5 |
| 20260507051505 | 32 | 155 | 1.0 | 2.0 | 0.04 | 1.23 | 0.13 | 99 | 1011.4 |
| 20260507051404 | 32 | 159 | 1.0 | 2.0 | 0.04 | 1.23 | 0.13 | 99 | 1011.3 |
| 20260507051303 | 32 | 159 | 1.0 | 2.0 | 0.04 | 1.23 | 0.13 | 99 | 1011.2 |
| 20260507051203 | 32 | 159 | 2.0 | 2.0 | 0.04 | 1.23 | 0.13 | 99 | 1011.4 |
| 20260507051104 | 32 | 159 | 2.0 | 2.0 | 0.04 | 1.23 | 0.13 | 99 | 1011.3 |
| 20260507051004 | 32 | 160 | 2.0 | 2.0 | 0.04 | 1.23 | 0.13 | 99 | 1011.4 |
| 20260507050704 | 32 | 160 | 2.0 | 2.0 | 0.02 | 1.22 | 0.12 | 99 | 1011.4 |
| 20260507050604 | 33 | 160 | 2.0 | 2.0 | 0.02 | 1.22 | 0.12 | 99 | 1011.5 |
| 20260507050505 | 33 | 160 | 2.0 | 2.0 | 0.02 | 1.22 | 0.12 | 99 | 1011.4 |
| 20260507050404 | 32 | 161 | 2.0 | 2.0 | 0.02 | 1.22 | 0.12 | 99 | 1011.2 |
| 20260507050303 | 32 | 160 | 2.0 | 2.0 | 0.02 | 1.22 | 0.12 | 99 | 1011.5 |
| 20260507050204 | 32 | 160 | 2.0 | 2.0 | 0.02 | 1.22 | 0.12 | 99 | 1011.4 |
| 20260507050104 | 32 | 160 | 2.0 | 2.0 | 0.02 | 1.22 | 0.12 | 99 | 1011.3 |
| 20260507050005 | 32 | 159 | 2.0 | 2.0 | 0.02 | 1.22 | 0.12 | 99 | 1011.4 |
| 20260507045904 | 32 | 159 | 2.0 | 2.0 | 0.02 | 1.22 | 0.12 | 99 | 1011.5 |
| 20260507045804 | 32 | 159 | 2.0 | 2.0 | 0.02 | 1.22 | 0.12 | 99 | 1011.5 |
| 20260507045704 | 32 | 159 | 2.0 | 2.0 | 0.02 | 1.22 | 0.12 | 99 | 1011.3 |
| 20260507045604 | 32 | 159 | 2.0 | 2.0 | 0.02 | 1.22 | 0.12 | 99 | 1011.3 |
| 20260507045504 | 32 | 159 | 2.0 | 2.0 | 0.02 | 1.22 | 0.12 | 99 | 1011.3 |
| 20260507045404 | 31 | 158 | 2.0 | 2.0 | 0.02 | 1.22 | 0.12 | 99 | 1011.1 |
| 20260507045306 | 31 | 156 | 2.0 | 2.0 | 0.02 | 1.22 | 0.12 | 99 | 1011.4 |
| 20260507045204 | 31 | 155 | 2.0 | 2.0 | 0.02 | 1.22 | 0.12 | 99 | 1011.2 |
| 20260507045103 | 31 | 155 | 2.0 | 2.0 | 0.02 | 1.22 | 0.12 | 99 | 1011.4 |
| 20260507044903 | 31 | 155 | 2.0 | 2.0 | 0.02 | 1.22 | 0.12 | 99 | 1011.1 |
| 20260507044803 | 31 | 155 | 2.0 | 2.0 | 0.02 | 1.22 | 0.12 | 99 | 1011.3 |
| 20260507044704 | 31 | 155 | 2.0 | 2.0 | 0.02 | 1.22 | 0.12 | 99 | 1011.2 |
| 20260507044604 | 31 | 155 | 2.0 | 2.0 | 0.02 | 1.22 | 0.12 | 99 | 1011.1 |
| 20260507044505 | 31 | 155 | 2.0 | 2.0 | 0.01 | 1.20 | 0.11 | 99 | 1011.2 |
| 20260507044404 | 31 | 155 | 2.0 | 2.0 | 0.01 | 1.20 | 0.11 | 99 | 1011.3 |
| 20260507044304 | 31 | 154 | 2.0 | 2.0 | 0.01 | 1.20 | 0.11 | 99 | 1011.3 |
| 20260507044203 | 31 | 155 | 2.0 | 2.0 | 0.01 | 1.20 | 0.11 | 99 | 1011.3 |
| 20260507044103 | 31 | 155 | 2.0 | 2.0 | 0.01 | 1.20 | 0.11 | 99 | 1011.5 |
| 20260507044004 | 31 | 155 | 2.0 | 2.0 | 0.01 | 1.20 | 0.11 | 99 | 1011.2 |
| 20260507043904 | 31 | 152 | 2.0 | 2.0 | 0.01 | 1.20 | 0.11 | 99 | 1011.2 |
| 20260507043804 | 31 | 151 | 2.0 | 2.0 | 0.01 | 1.20 | 0.11 | 99 | 1011.4 |
| 20260507043704 | 31 | 149 | 2.0 | 2.0 | 0.01 | 1.20 | 0.11 | 99 | 1011.4 |
| 20260507043603 | 31 | 147 | 2.0 | 2.0 | 0.01 | 1.20 | 0.11 | 99 | 1011.4 |
| 20260507043504 | 31 | 144 | 2.0 | 2.0 | 0.01 | 1.20 | 0.11 | 99 | 1011.4 |
| 20260507043303 | 31 | 147 | 2.0 | 4.0 | 0.01 | 1.20 | 0.11 | 99 | 1011.4 |
| 20260507043204 | 31 | 148 | 2.0 | 4.0 | 0.01 | 1.20 | 0.11 | 99 | 1011.4 |
| 20260507043104 | 31 | 146 | 2.0 | 4.0 | 0.01 | 1.20 | 0.11 | 99 | 1011.3 |
| 20260507043004 | 31 | 144 | 2.0 | 4.0 | 0.01 | 1.20 | 0.11 | 99 | 1011.3 |
| 20260507042903 | 31 | 146 | 2.0 | 4.0 | 0.01 | 1.20 | 0.11 | 99 | 1011.3 |
| 20260507042803 | 31 | 148 | 3.0 | 4.0 | 0.01 | 1.20 | 0.11 | 99 | 1011.3 |
| 20260507042704 | 31 | 148 | 3.0 | 4.0 | 0.01 | 1.20 | 0.11 | 99 | 1011.3 |
| 20260507042604 | 31 | 150 | 3.0 | 4.0 | 0.01 | 1.20 | 0.11 | 99 | 1011.2 |
| 20260507042504 | 31 | 149 | 3.0 | 4.0 | 0.01 | 1.20 | 0.11 | 99 | 1011.3 |
| 20260507042404 | 31 | 149 | 2.0 | 4.0 | 0.01 | 1.20 | 0.11 | 99 | 1011.4 |
| 20260507042306 | 31 | 146 | 2.0 | 4.0 | 0.01 | 1.20 | 0.11 | 99 | 1011.4 |
| 20260507042204 | 31 | 142 | 2.0 | 4.0 | 0.01 | 1.20 | 0.11 | 99 | 1011.3 |
| 20260507042104 | 31 | 144 | 1.0 | 4.0 | 0.01 | 1.20 | 0.11 | 99 | 1011.2 |
| 20260507042005 | 30 | 144 | 1.0 | 4.0 | 0.00 | 1.19 | 0.09 | 99 | 1011.4 |
| 20260507041904 | 30 | 142 | 1.0 | 4.0 | 0.00 | 1.19 | 0.09 | 99 | 1011.2 |
| 20260507041803 | 31 | 124 | 1.0 | 2.0 | 0.00 | 1.19 | 0.09 | 99 | 1011.3 |
| 20260507041603 | 31 | 48 | 1.0 | 2.0 | 0.00 | 1.19 | 0.09 | 99 | 1011.3 |
| 20260507041403 | 31 | 25 | 1.0 | 2.0 | 0.00 | 1.19 | 0.09 | 99 | 1011.1 |
| 20260507041303 | 31 | 23 | 1.0 | 2.0 | 0.00 | 1.19 | 0.09 | 99 | 1011.2 |
| 20260507041204 | 31 | 23 | 1.0 | 2.0 | 0.00 | 1.19 | 0.09 | 99 | 1011.2 |
| 20260507041104 | 31 | 23 | 1.0 | 2.0 | 0.00 | 1.19 | 0.09 | 99 | 1011.3 |
| 20260507041005 | 31 | 23 | 1.0 | 2.0 | 0.00 | 1.19 | 0.09 | 99 | 1011.2 |
| 20260507040904 | 31 | 23 | 1.0 | 2.0 | 0.01 | 1.19 | 0.09 | 99 | 1011.2 |
| 20260507040804 | 31 | 23 | 1.0 | 2.0 | 0.01 | 1.19 | 0.09 | 99 | 1011.2 |
| 20260507040603 | 31 | 15 | 0.0 | 2.0 | 0.01 | 1.19 | 0.09 | 99 | 1011.3 |
| 20260507040504 | 31 | 32 | 0.0 | 2.0 | 0.01 | 1.19 | 0.09 | 99 | 1011.2 |
| 20260507040403 | 31 | 66 | 0.0 | 2.0 | 0.01 | 1.19 | 0.09 | 99 | 1011.3 |
| 20260507040304 | 31 | 75 | 0.0 | 2.0 | 0.01 | 1.19 | 0.09 | 99 | 1011.3 |
| 20260507040204 | 31 | 81 | 1.0 | 2.0 | 0.01 | 1.19 | 0.09 | 99 | 1011.0 |
| 20260507040104 | 31 | 83 | 1.0 | 2.0 | 0.01 | 1.19 | 0.09 | 99 | 1011.4 |
| 20260507040005 | 31 | 90 | 1.0 | 2.0 | 0.01 | 1.19 | 0.09 | 99 | 1011.3 |
| 20260507035904 | 31 | 88 | 1.0 | 2.0 | 0.01 | 1.19 | 0.09 | 99 | 1011.3 |
| 20260507035703 | 31 | 91 | 2.0 | 2.0 | 0.01 | 1.19 | 0.09 | 99 | 1011.3 |
| 20260507035604 | 31 | 93 | 2.0 | 4.0 | 0.01 | 1.19 | 0.09 | 99 | 1011.3 |
| 20260507035504 | 31 | 91 | 2.0 | 4.0 | 0.01 | 1.19 | 0.09 | 99 | 1011.1 |
| 20260507035306 | 31 | 103 | 2.0 | 4.0 | 0.01 | 1.19 | 0.09 | 99 | 1011.5 |
| 20260507035104 | 30 | 104 | 3.0 | 4.0 | 0.01 | 1.19 | 0.09 | 99 | 1011.3 |
| 20260507035005 | 31 | 100 | 3.0 | 4.0 | 0.01 | 1.19 | 0.09 | 99 | 1011.4 |
| 20260507034904 | 31 | 105 | 3.0 | 4.0 | 0.01 | 1.19 | 0.09 | 99 | 1011.4 |
| 20260507034803 | 31 | 108 | 3.0 | 4.0 | 0.01 | 1.19 | 0.09 | 99 | 1011.3 |
| 20260507034703 | 31 | 106 | 3.0 | 4.0 | 0.01 | 1.19 | 0.09 | 99 | 1011.4 |
| 20260507034604 | 31 | 105 | 3.0 | 4.0 | 0.01 | 1.19 | 0.09 | 99 | 1011.4 |
| 20260507034504 | 31 | 114 | 3.0 | 4.0 | 0.01 | 1.19 | 0.09 | 99 | 1011.5 |
| 20260507034404 | 31 | 108 | 3.0 | 4.0 | 0.01 | 1.19 | 0.09 | 99 | 1011.4 |
| 20260507034304 | 31 | 107 | 3.0 | 4.0 | 0.01 | 1.19 | 0.09 | 99 | 1011.5 |
| 20260507034204 | 30 | 105 | 2.0 | 4.0 | 0.01 | 1.19 | 0.09 | 99 | 1011.3 |
| 20260507034103 | 30 | 105 | 3.0 | 6.0 | 0.01 | 1.19 | 0.09 | 99 | 1011.4 |
| 20260507034004 | 30 | 108 | 3.0 | 6.0 | 0.01 | 1.19 | 0.09 | 99 | 1011.4 |
| 20260507033903 | 30 | 111 | 3.0 | 6.0 | 0.01 | 1.19 | 0.09 | 99 | 1011.3 |
| 20260507033803 | 30 | 111 | 4.0 | 6.0 | 0.01 | 1.19 | 0.09 | 99 | 1011.7 |
| 20260507033703 | 30 | 116 | 4.0 | 6.0 | 0.01 | 1.19 | 0.09 | 99 | 1011.5 |
| 20260507033504 | 30 | 112 | 4.0 | 6.0 | 0.01 | 1.19 | 0.09 | 99 | 1011.7 |
| 20260507033404 | 30 | 116 | 4.0 | 6.0 | 0.01 | 1.19 | 0.09 | 99 | 1011.4 |
| 20260507033304 | 31 | 115 | 5.0 | 6.0 | 0.01 | 1.19 | 0.09 | 99 | 1011.5 |
| 20260507033203 | 31 | 116 | 5.0 | 6.0 | 0.01 | 1.19 | 0.09 | 99 | 1011.5 |
| 20260507033103 | 31 | 112 | 5.0 | 6.0 | 0.01 | 1.19 | 0.09 | 99 | 1011.5 |
| 20260507033004 | 31 | 115 | 4.0 | 6.0 | 0.01 | 1.19 | 0.09 | 99 | 1011.6 |
| 20260507032903 | 31 | 118 | 4.0 | 6.0 | 0.01 | 1.19 | 0.09 | 99 | 1011.5 |
| 20260507032804 | 31 | 120 | 4.0 | 6.0 | 0.01 | 1.19 | 0.09 | 99 | 1011.3 |
| 20260507032704 | 31 | 119 | 4.0 | 6.0 | 0.01 | 1.19 | 0.09 | 99 | 1011.4 |
| 20260507032504 | 31 | 119 | 4.0 | 6.0 | 0.01 | 1.19 | 0.09 | 99 | 1011.5 |
| 20260507032403 | 31 | 115 | 4.0 | 6.0 | 0.01 | 1.19 | 0.09 | 99 | 1011.5 |
| 20260507032305 | 31 | 112 | 4.0 | 6.0 | 0.02 | 1.19 | 0.09 | 99 | 1011.5 |
| 20260507032203 | 31 | 113 | 4.0 | 6.0 | 0.02 | 1.19 | 0.09 | 99 | 1011.2 |
| 20260507032104 | 31 | 122 | 3.0 | 4.0 | 0.02 | 1.19 | 0.09 | 99 | 1011.3 |
| 20260507031904 | 31 | 103 | 3.0 | 4.0 | 0.02 | 1.19 | 0.09 | 99 | 1011.4 |
| 20260507031804 | 31 | 96 | 3.0 | 4.0 | 0.02 | 1.19 | 0.09 | 99 | 1011.3 |
| 20260507031703 | 31 | 90 | 3.0 | 4.0 | 0.02 | 1.19 | 0.09 | 99 | 1011.6 |
| 20260507031603 | 31 | 86 | 3.0 | 4.0 | 0.02 | 1.19 | 0.09 | 99 | 1011.4 |
| 20260507031504 | 31 | 89 | 2.0 | 4.0 | 0.02 | 1.19 | 0.09 | 99 | 1011.6 |
| 20260507031403 | 31 | 90 | 2.0 | 4.0 | 0.02 | 1.19 | 0.09 | 99 | 1011.2 |
| 20260507031303 | 31 | 94 | 2.0 | 2.0 | 0.02 | 1.19 | 0.09 | 99 | 1011.3 |
| 20260507031204 | 31 | 93 | 2.0 | 4.0 | 0.02 | 1.19 | 0.09 | 99 | 1011.3 |
| 20260507031104 | 31 | 96 | 2.0 | 4.0 | 0.02 | 1.19 | 0.09 | 99 | 1011.4 |
| 20260507031004 | 31 | 99 | 2.0 | 4.0 | 0.01 | 1.18 | 0.08 | 99 | 1011.3 |
| 20260507030803 | 31 | 109 | 2.0 | 4.0 | 0.01 | 1.18 | 0.08 | 99 | 1011.3 |
| 20260507030603 | 31 | 119 | 2.0 | 4.0 | 0.01 | 1.18 | 0.08 | 99 | 1011.5 |
| 20260507030504 | 31 | 120 | 2.0 | 4.0 | 0.02 | 1.18 | 0.08 | 99 | 1011.1 |
| 20260507030403 | 31 | 120 | 1.0 | 4.0 | 0.02 | 1.18 | 0.08 | 99 | 1011.2 |
| 20260507030204 | 31 | 121 | 1.0 | 2.0 | 0.02 | 1.18 | 0.08 | 99 | 1011.2 |
| 20260507030104 | 31 | 114 | 1.0 | 2.0 | 0.02 | 1.18 | 0.08 | 99 | 1011.3 |
| 20260507030005 | 31 | 109 | 1.0 | 2.0 | 0.02 | 1.18 | 0.08 | 99 | 1011.0 |
| 20260507025904 | 31 | 109 | 1.0 | 2.0 | 0.02 | 1.18 | 0.08 | 99 | 1011.0 |
| 20260507025804 | 31 | 103 | 1.0 | 2.0 | 0.02 | 1.18 | 0.08 | 99 | 1011.2 |
| 20260507025703 | 31 | 95 | 1.0 | 2.0 | 0.02 | 1.18 | 0.08 | 99 | 1011.1 |
| 20260507025604 | 31 | 82 | 1.0 | 2.0 | 0.02 | 1.18 | 0.08 | 99 | 1011.4 |
| 20260507025504 | 31 | 74 | 0.0 | 2.0 | 0.02 | 1.18 | 0.08 | 99 | 1011.3 |
| 20260507025404 | 31 | 74 | 0.0 | 2.0 | 0.02 | 1.18 | 0.08 | 99 | 1011.0 |
| 20260507025306 | 31 | 74 | 0.0 | 2.0 | 0.02 | 1.18 | 0.08 | 99 | 1011.2 |
| 20260507025203 | 31 | 75 | 0.0 | 2.0 | 0.02 | 1.18 | 0.08 | 99 | 1011.2 |
| 20260507025103 | 31 | 100 | 0.0 | 2.0 | 0.02 | 1.18 | 0.08 | 99 | 1011.2 |
| 20260507025004 | 31 | 110 | 0.0 | 2.0 | 0.02 | 1.18 | 0.08 | 99 | 1011.1 |
| 20260507024903 | 31 | 110 | 0.0 | 2.0 | 0.02 | 1.18 | 0.08 | 99 | 1011.2 |
| 20260507024804 | 31 | 129 | 0.0 | 2.0 | 0.02 | 1.18 | 0.08 | 99 | 1011.0 |
| 20260507024704 | 31 | 121 | 0.0 | 2.0 | 0.02 | 1.18 | 0.08 | 99 | 1011.0 |
| 20260507024603 | 31 | 119 | 0.0 | 2.0 | 0.02 | 1.18 | 0.08 | 99 | 1011.2 |
| 20260507024504 | 31 | 119 | 0.0 | 2.0 | 0.02 | 1.18 | 0.08 | 99 | 1011.2 |
| 20260507024403 | 31 | 119 | 0.0 | 2.0 | 0.02 | 1.18 | 0.08 | 99 | 1011.1 |
| 20260507024203 | 31 | 119 | 0.0 | 2.0 | 0.02 | 1.18 | 0.08 | 99 | 1010.8 |
| 20260507024104 | 31 | 120 | 0.0 | 2.0 | 0.02 | 1.18 | 0.08 | 99 | 1010.9 |
| 20260507024004 | 31 | 124 | 1.0 | 2.0 | 0.04 | 1.18 | 0.08 | 99 | 1010.9 |
| 20260507023904 | 31 | 124 | 1.0 | 2.0 | 0.04 | 1.18 | 0.08 | 99 | 1010.9 |
| 20260507023804 | 32 | 121 | 1.0 | 2.0 | 0.04 | 1.18 | 0.08 | 99 | 1010.9 |
| 20260507023704 | 32 | 117 | 1.0 | 2.0 | 0.04 | 1.18 | 0.08 | 99 | 1011.0 |
| 20260507023603 | 32 | 119 | 1.0 | 2.0 | 0.04 | 1.18 | 0.08 | 99 | 1011.1 |
| 20260507023504 | 32 | 121 | 1.0 | 2.0 | 0.04 | 1.18 | 0.08 | 99 | 1010.8 |
| 20260507023403 | 32 | 116 | 1.0 | 2.0 | 0.04 | 1.18 | 0.08 | 99 | 1011.1 |
| 20260507023303 | 32 | 114 | 1.0 | 2.0 | 0.04 | 1.18 | 0.08 | 99 | 1011.0 |
| 20260507023204 | 32 | 117 | 1.0 | 2.0 | 0.04 | 1.18 | 0.08 | 99 | 1011.2 |
| 20260507023104 | 32 | 117 | 1.0 | 2.0 | 0.04 | 1.18 | 0.08 | 99 | 1011.1 |
| 20260507023005 | 32 | 119 | 1.0 | 4.0 | 0.04 | 1.18 | 0.08 | 99 | 1011.1 |
| 20260507022904 | 32 | 119 | 2.0 | 4.0 | 0.04 | 1.18 | 0.08 | 99 | 1011.1 |
| 20260507022804 | 32 | 121 | 2.0 | 4.0 | 0.04 | 1.18 | 0.08 | 99 | 1011.1 |
| 20260507022704 | 32 | 125 | 2.0 | 4.0 | 0.04 | 1.18 | 0.08 | 99 | 1011.3 |
| 20260507022603 | 32 | 125 | 2.0 | 4.0 | 0.04 | 1.18 | 0.08 | 99 | 1011.1 |
| 20260507022403 | 32 | 130 | 1.0 | 4.0 | 0.02 | 1.17 | 0.07 | 99 | 1011.2 |
| 20260507022306 | 32 | 132 | 1.0 | 4.0 | 0.02 | 1.17 | 0.07 | 99 | 1011.2 |
| 20260507022204 | 32 | 121 | 1.0 | 4.0 | 0.02 | 1.17 | 0.07 | 99 | 1011.1 |
| 20260507022103 | 32 | 110 | 2.0 | 4.0 | 0.02 | 1.17 | 0.07 | 99 | 1011.1 |
| 20260507022004 | 32 | 105 | 1.0 | 4.0 | 0.02 | 1.17 | 0.07 | 99 | 1011.2 |
| 20260507021903 | 32 | 105 | 2.0 | 4.0 | 0.02 | 1.17 | 0.07 | 99 | 1011.1 |
| 20260507021803 | 32 | 103 | 2.0 | 4.0 | 0.02 | 1.17 | 0.07 | 99 | 1010.9 |
| 20260507021703 | 32 | 99 | 2.0 | 4.0 | 0.04 | 1.17 | 0.07 | 99 | 1011.0 |
| 20260507021604 | 32 | 98 | 2.0 | 4.0 | 0.04 | 1.17 | 0.07 | 99 | 1011.0 |
| 20260507021504 | 32 | 99 | 2.0 | 4.0 | 0.04 | 1.17 | 0.07 | 99 | 1011.1 |
| 20260507021404 | 32 | 103 | 3.0 | 4.0 | 0.04 | 1.17 | 0.07 | 99 | 1011.1 |
| 20260507021304 | 32 | 106 | 3.0 | 4.0 | 0.04 | 1.17 | 0.07 | 99 | 1010.9 |
| 20260507021204 | 32 | 109 | 3.0 | 4.0 | 0.04 | 1.17 | 0.07 | 99 | 1011.0 |
| 20260507021103 | 31 | 114 | 3.0 | 4.0 | 0.04 | 1.17 | 0.07 | 99 | 1010.9 |
| 20260507021004 | 31 | 115 | 3.0 | 4.0 | 0.04 | 1.17 | 0.07 | 99 | 1010.9 |
| 20260507020903 | 31 | 118 | 2.0 | 4.0 | 0.04 | 1.17 | 0.07 | 99 | 1011.0 |
| 20260507020804 | 31 | 118 | 2.0 | 4.0 | 0.05 | 1.17 | 0.07 | 99 | 1010.9 |
| 20260507020604 | 31 | 121 | 2.0 | 4.0 | 0.05 | 1.17 | 0.07 | 99 | 1010.8 |
| 20260507020504 | 31 | 122 | 2.0 | 4.0 | 0.04 | 1.16 | 0.06 | 99 | 1011.1 |
| 20260507020404 | 31 | 120 | 2.0 | 4.0 | 0.04 | 1.16 | 0.06 | 99 | 1010.9 |
| 20260507020303 | 31 | 118 | 2.0 | 2.0 | 0.04 | 1.16 | 0.06 | 99 | 1011.0 |
| 20260507020203 | 31 | 119 | 2.0 | 2.0 | 0.04 | 1.16 | 0.06 | 99 | 1011.1 |
| 20260507020103 | 31 | 118 | 2.0 | 4.0 | 0.05 | 1.16 | 0.06 | 99 | 1011.0 |
| 20260507020004 | 31 | 120 | 2.0 | 4.0 | 0.05 | 1.16 | 0.06 | 99 | 1010.9 |
| 20260507015904 | 31 | 119 | 2.0 | 4.0 | 0.05 | 1.16 | 0.06 | 99 | 1010.9 |
| 20260507015804 | 31 | 118 | 2.0 | 4.0 | 0.05 | 1.16 | 0.06 | 99 | 1010.9 |
| 20260507015703 | 31 | 121 | 2.0 | 4.0 | 0.05 | 1.16 | 0.06 | 99 | 1010.9 |
| 20260507015603 | 31 | 127 | 2.0 | 4.0 | 0.05 | 1.16 | 0.06 | 99 | 1010.9 |
| 20260507015504 | 31 | 130 | 2.0 | 4.0 | 0.05 | 1.16 | 0.06 | 99 | 1010.9 |
| 20260507015306 | 32 | 132 | 2.0 | 4.0 | 0.05 | 1.16 | 0.06 | 99 | 1010.9 |
| 20260507015203 | 32 | 134 | 2.0 | 6.0 | 0.05 | 1.16 | 0.06 | 99 | 1010.9 |
| 20260507015103 | 32 | 141 | 2.0 | 6.0 | 0.05 | 1.16 | 0.06 | 99 | 1011.0 |
| 20260507015004 | 32 | 141 | 3.0 | 6.0 | 0.05 | 1.16 | 0.06 | 99 | 1011.0 |
| 20260507014904 | 32 | 140 | 3.0 | 6.0 | 0.05 | 1.16 | 0.06 | 99 | 1010.9 |
| 20260507014804 | 32 | 138 | 3.0 | 6.0 | 0.05 | 1.16 | 0.06 | 99 | 1010.9 |
| 20260507014704 | 32 | 142 | 3.0 | 6.0 | 0.05 | 1.16 | 0.06 | 99 | 1010.8 |
| 20260507014603 | 32 | 143 | 3.0 | 6.0 | 0.05 | 1.16 | 0.06 | 99 | 1010.8 |
| 20260507014504 | 32 | 141 | 3.0 | 6.0 | 0.05 | 1.16 | 0.06 | 99 | 1011.0 |
| 20260507014403 | 32 | 139 | 3.0 | 6.0 | 0.05 | 1.16 | 0.06 | 99 | 1010.9 |
| 20260507014304 | 32 | 141 | 3.0 | 6.0 | 0.05 | 1.16 | 0.06 | 99 | 1010.8 |
| 20260507014204 | 32 | 139 | 3.0 | 6.0 | 0.05 | 1.16 | 0.06 | 99 | 1011.0 |
| 20260507014104 | 32 | 129 | 3.0 | 6.0 | 0.05 | 1.16 | 0.06 | 99 | 1010.8 |
| 20260507014004 | 32 | 124 | 2.0 | 4.0 | 0.04 | 1.15 | 0.05 | 99 | 1010.8 |
| 20260507013903 | 32 | 124 | 3.0 | 7.0 | 0.04 | 1.15 | 0.05 | 99 | 1010.8 |
| 20260507013803 | 32 | 125 | 3.0 | 7.0 | 0.04 | 1.15 | 0.05 | 99 | 1010.7 |
| 20260507013504 | 32 | 114 | 3.0 | 7.0 | 0.04 | 1.15 | 0.05 | 99 | 1010.8 |
| 20260507013403 | 32 | 114 | 3.0 | 7.0 | 0.04 | 1.15 | 0.05 | 99 | 1010.8 |
| 20260507013206 | 32 | 113 | 3.0 | 7.0 | 0.04 | 1.15 | 0.05 | 99 | 1010.9 |
| 20260507013104 | 32 | 115 | 3.0 | 7.0 | 0.04 | 1.15 | 0.05 | 99 | 1010.8 |
| 20260507013004 | 32 | 120 | 3.0 | 7.0 | 0.04 | 1.15 | 0.05 | 99 | 1010.8 |
| 20260507012904 | 32 | 120 | 3.0 | 7.0 | 0.04 | 1.15 | 0.05 | 99 | 1010.7 |
| 20260507012803 | 32 | 115 | 3.0 | 4.0 | 0.04 | 1.15 | 0.05 | 99 | 1010.7 |
| 20260507012703 | 32 | 113 | 3.0 | 4.0 | 0.04 | 1.15 | 0.05 | 99 | 1010.7 |
| 20260507012603 | 32 | 113 | 3.0 | 4.0 | 0.04 | 1.15 | 0.05 | 99 | 1010.8 |
| 20260507012504 | 32 | 115 | 3.0 | 4.0 | 0.04 | 1.15 | 0.05 | 99 | 1010.8 |
| 20260507012403 | 32 | 119 | 3.0 | 4.0 | 0.04 | 1.15 | 0.05 | 99 | 1010.7 |
| 20260507012306 | 32 | 117 | 3.0 | 4.0 | 0.04 | 1.15 | 0.05 | 99 | 1010.7 |
| 20260507012204 | 33 | 114 | 3.0 | 6.0 | 0.04 | 1.15 | 0.05 | 99 | 1010.8 |
| 20260507012103 | 33 | 114 | 3.0 | 6.0 | 0.04 | 1.15 | 0.05 | 99 | 1010.9 |
| 20260507012004 | 33 | 106 | 3.0 | 6.0 | 0.04 | 1.15 | 0.05 | 99 | 1010.7 |
| 20260507011903 | 33 | 100 | 3.0 | 6.0 | 0.04 | 1.16 | 0.05 | 99 | 1010.8 |
| 20260507011803 | 33 | 114 | 3.0 | 8.0 | 0.02 | 1.15 | 0.04 | 99 | 1010.9 |
| 20260507011704 | 33 | 119 | 4.0 | 8.0 | 0.02 | 1.15 | 0.04 | 99 | 1010.9 |
| 20260507011604 | 32 | 122 | 4.0 | 8.0 | 0.02 | 1.15 | 0.04 | 99 | 1010.9 |
| 20260507011505 | 32 | 126 | 5.0 | 8.0 | 0.02 | 1.15 | 0.04 | 99 | 1011.0 |
| 20260507011404 | 33 | 124 | 5.0 | 8.0 | 0.02 | 1.15 | 0.04 | 99 | 1010.8 |
| 20260507011303 | 32 | 126 | 5.0 | 8.0 | 0.02 | 1.15 | 0.04 | 99 | 1010.9 |
| 20260507011203 | 32 | 130 | 5.0 | 8.0 | 0.02 | 1.15 | 0.04 | 99 | 1010.9 |
| 20260507011004 | 32 | 135 | 4.0 | 8.0 | 0.02 | 1.15 | 0.04 | 99 | 1010.9 |
| 20260507010903 | 32 | 133 | 5.0 | 8.0 | 0.01 | 1.13 | 0.02 | 99 | 1010.8 |
| 20260507010804 | 32 | 130 | 5.0 | 8.0 | 0.01 | 1.13 | 0.02 | 99 | 1010.7 |
| 20260507010704 | 32 | 130 | 5.0 | 7.0 | 0.01 | 1.13 | 0.02 | 99 | 1010.7 |
| 20260507010504 | 32 | 123 | 4.0 | 6.0 | 0.01 | 1.13 | 0.02 | 99 | 1010.8 |
| 20260507010404 | 32 | 125 | 4.0 | 6.0 | 0.01 | 1.13 | 0.02 | 99 | 1011.0 |
| 20260507010303 | 32 | 125 | 4.0 | 7.0 | 0.01 | 1.13 | 0.02 | 99 | 1011.1 |
| 20260507010203 | 32 | 126 | 5.0 | 7.0 | 0.00 | 1.12 | 0.01 | 99 | 1010.9 |
| 20260507010104 | 32 | 127 | 5.0 | 7.0 | 0.00 | 1.12 | 0.01 | 99 | 1011.0 |
| 20260507010004 | 32 | 129 | 5.0 | 7.0 | 0.00 | 1.12 | 0.01 | 99 | 1010.8 |
| 20260507005904 | 32 | 134 | 5.0 | 7.0 | 0.00 | 1.12 | 0.01 | 99 | 1011.0 |
| 20260507005803 | 32 | 140 | 5.0 | 8.0 | 0.00 | 1.12 | 0.01 | 99 | 1010.9 |
| 20260507005703 | 32 | 134 | 5.0 | 8.0 | 0.00 | 1.12 | 0.01 | 99 | 1010.9 |
| 20260507005604 | 32 | 134 | 4.0 | 8.0 | 0.00 | 1.12 | 0.01 | 99 | 1011.0 |
| 20260507005504 | 32 | 132 | 5.0 | 8.0 | 0.00 | 1.12 | 0.01 | 99 | 1011.0 |
| 20260507005404 | 32 | 130 | 5.0 | 8.0 | 0.00 | 1.12 | 0.01 | 99 | 1010.8 |
| 20260507005305 | 32 | 127 | 5.0 | 8.0 | 0.00 | 1.12 | 0.01 | 99 | 1010.9 |
| 20260507005203 | 32 | 119 | 5.0 | 8.0 | 0.00 | 1.12 | 0.01 | 99 | 1010.9 |
| 20260507005103 | 33 | 115 | 5.0 | 8.0 | 0.00 | 1.12 | 0.01 | 99 | 1011.0 |
| 20260507004903 | 33 | 111 | 5.0 | 8.0 | 0.00 | 1.12 | 0.01 | 99 | 1011.0 |
| 20260507004803 | 33 | 104 | 5.0 | 7.0 | 0.00 | 1.12 | 0.01 | 99 | 1010.9 |
| 20260507004704 | 33 | 109 | 4.0 | 7.0 | 0.00 | 1.12 | 0.01 | 99 | 1011.0 |
| 20260507004603 | 33 | 109 | 4.0 | 7.0 | 0.00 | 1.12 | 0.01 | 99 | 1011.0 |
| 20260507004504 | 33 | 108 | 4.0 | 7.0 | 0.00 | 1.12 | 0.01 | 99 | 1010.9 |
| 20260507004403 | 33 | 109 | 4.0 | 7.0 | 0.00 | 1.12 | 0.01 | 99 | 1011.0 |
| 20260507004303 | 33 | 112 | 4.0 | 7.0 | 0.00 | 1.12 | 0.01 | 99 | 1011.0 |
| 20260507004203 | 33 | 116 | 3.0 | 7.0 | 0.00 | 1.12 | 0.01 | 99 | 1011.0 |
| 20260507004104 | 33 | 118 | 3.0 | 7.0 | 0.00 | 1.12 | 0.01 | 99 | 1010.8 |
| 20260507004004 | 33 | 117 | 3.0 | 4.0 | 0.00 | 1.12 | 0.01 | 99 | 1011.1 |
| 20260507003903 | 33 | 120 | 2.0 | 4.0 | 0.00 | 1.12 | 0.01 | 99 | 1011.1 |
| 20260507003603 | 33 | 126 | 2.0 | 4.0 | 0.00 | 1.12 | 0.01 | 99 | 1011.1 |
| 20260507003504 | 33 | 131 | 2.0 | 4.0 | 0.00 | 1.12 | 0.01 | 99 | 1011.0 |
| 20260507003303 | 33 | 127 | 1.0 | 2.0 | 0.00 | 1.13 | 0.01 | 99 | 1011.0 |
| 20260507003104 | 33 | 130 | 1.0 | 2.0 | 0.00 | 1.13 | 0.01 | 99 | 1011.0 |
| 20260507003005 | 33 | 129 | 1.0 | 2.0 | 0.00 | 1.13 | 0.01 | 99 | 1010.9 |
| 20260507002904 | 33 | 131 | 1.0 | 2.0 | 0.00 | 1.13 | 0.01 | 99 | 1011.0 |
| 20260507002803 | 33 | 134 | 1.0 | 2.0 | 0.00 | 1.13 | 0.01 | 99 | 1011.0 |
| 20260507002703 | 33 | 135 | 1.0 | 2.0 | 0.00 | 1.13 | 0.01 | 99 | 1010.8 |
| 20260507002603 | 33 | 138 | 1.0 | 2.0 | 0.00 | 1.13 | 0.01 | 99 | 1010.8 |
| 20260507002504 | 33 | 137 | 1.0 | 2.0 | 0.00 | 1.13 | 0.01 | 99 | 1011.0 |
| 20260507002404 | 33 | 134 | 1.0 | 2.0 | 0.00 | 1.13 | 0.01 | 99 | 1010.8 |
| 20260507002204 | 33 | 141 | 1.0 | 2.0 | 0.00 | 1.13 | 0.01 | 99 | 1010.8 |
| 20260507002103 | 33 | 140 | 2.0 | 2.0 | 0.00 | 1.13 | 0.01 | 99 | 1011.0 |
| 20260507002004 | 33 | 141 | 2.0 | 2.0 | 0.00 | 1.13 | 0.01 | 99 | 1011.0 |
| 20260507001903 | 33 | 142 | 2.0 | 2.0 | 0.00 | 1.13 | 0.01 | 99 | 1011.2 |
| 20260507001803 | 33 | 142 | 2.0 | 2.0 | 0.00 | 1.13 | 0.01 | 99 | 1011.0 |
| 20260507001704 | 33 | 145 | 2.0 | 2.0 | 0.00 | 1.13 | 0.01 | 99 | 1010.9 |
| 20260507001604 | 33 | 143 | 2.0 | 2.0 | 0.00 | 1.13 | 0.01 | 99 | 1011.0 |
| 20260507001504 | 33 | 143 | 2.0 | 2.0 | 0.00 | 1.13 | 0.01 | 99 | 1010.9 |
| 20260507001404 | 33 | 146 | 2.0 | 2.0 | 0.00 | 1.13 | 0.01 | 99 | 1011.0 |
| 20260507001203 | 33 | 143 | 2.0 | 2.0 | 0.00 | 1.13 | 0.01 | 99 | 1010.9 |
| 20260507001103 | 33 | 143 | 2.0 | 2.0 | 0.00 | 1.13 | 0.01 | 99 | 1011.0 |
| 20260507001004 | 33 | 141 | 2.0 | 2.0 | 0.00 | 1.13 | 0.01 | 99 | 1011.0 |
| 20260507000903 | 33 | 139 | 2.0 | 2.0 | 0.00 | 1.13 | 0.01 | 99 | 1010.8 |
| 20260507000804 | 33 | 144 | 2.0 | 2.0 | 0.00 | 1.13 | 0.01 | 99 | 1010.8 |
| 20260507000704 | 33 | 138 | 2.0 | 2.0 | 0.00 | 1.13 | 0.01 | 99 | 1011.1 |
| 20260507000603 | 33 | 137 | 2.0 | 4.0 | 0.00 | 1.13 | 0.01 | 99 | 1011.0 |
| 20260507000505 | 33 | 134 | 2.0 | 4.0 | 0.00 | 1.13 | 0.01 | 99 | 1011.0 |
| 20260507000405 | 33 | 140 | 2.0 | 4.0 | 0.00 | 1.13 | 0.01 | 99 | 1010.8 |
| 20260507000303 | 33 | 137 | 2.0 | 4.0 | 0.00 | 1.13 | 0.01 | 99 | 1011.0 |
| 20260507000205 | 33 | 136 | 3.0 | 4.0 | 0.00 | 1.13 | 0.01 | 99 | 1011.0 |
| 20260507000104 | 33 | 133 | 3.0 | 4.0 | 0.00 | 1.13 | 0.01 | 99 | 1011.0 |
| 20260507000005 | 33 | 130 | 3.0 | 4.0 | 0.00 | 1.13 | 0.01 | 99 | 1010.9 |
| 20260506235903 | 33 | 130 | 2.0 | 4.0 | 0.00 | 1.13 | 0.01 | 99 | 1010.8 |
| 20260506235703 | 33 | 121 | 2.0 | 4.0 | 0.00 | 1.13 | 0.01 | 99 | 1011.1 |
| 20260506235504 | 33 | 111 | 2.0 | 4.0 | 0.00 | 1.13 | 0.01 | 99 | 1010.8 |
| 20260506235404 | 33 | 87 | 2.0 | 4.0 | 0.00 | 1.13 | 0.01 | 99 | 1011.0 |
| 20260506235204 | 33 | 70 | 1.0 | 4.0 | 0.01 | 1.13 | 0.01 | 99 | 1011.0 |
| 20260506235103 | 33 | 67 | 1.0 | 4.0 | 0.01 | 1.13 | 0.01 | 99 | 1011.0 |
| 20260506235004 | 33 | 63 | 1.0 | 4.0 | 0.01 | 1.13 | 0.01 | 99 | 1011.0 |
| 20260506234903 | 33 | 63 | 1.0 | 4.0 | 0.01 | 1.13 | 0.01 | 99 | 1010.9 |
| 20260506234804 | 33 | 63 | 1.0 | 4.0 | 0.01 | 1.13 | 0.01 | 99 | 1010.9 |
| 20260506234704 | 33 | 66 | 1.0 | 4.0 | 0.01 | 1.13 | 0.01 | 99 | 1010.9 |
| 20260506234604 | 33 | 74 | 1.0 | 4.0 | 0.01 | 1.13 | 0.01 | 99 | 1010.7 |
| 20260506234504 | 33 | 73 | 1.0 | 4.0 | 0.01 | 1.13 | 0.01 | 99 | 1011.1 |
| 20260506234404 | 33 | 91 | 0.0 | 4.0 | 0.01 | 1.13 | 0.01 | 99 | 1011.0 |
| 20260506234303 | 33 | 146 | 0.0 | 2.0 | 0.01 | 1.13 | 0.01 | 99 | 1010.9 |
| 20260506234203 | 33 | 158 | 0.0 | 2.0 | 0.01 | 1.13 | 0.01 | 99 | 1010.8 |
| 20260506234103 | 32 | 158 | 0.0 | 2.0 | 0.01 | 1.13 | 0.01 | 99 | 1010.8 |
| 20260506234004 | 32 | 158 | 0.0 | 2.0 | 0.01 | 1.13 | 0.01 | 99 | 1010.8 |
| 20260506233903 | 32 | 158 | 0.0 | 2.0 | 0.01 | 1.13 | 0.01 | 99 | 1010.8 |
| 20260506233804 | 33 | 158 | 0.0 | 2.0 | 0.01 | 1.13 | 0.01 | 99 | 1010.9 |
| 20260506233704 | 33 | 158 | 0.0 | 2.0 | 0.01 | 1.13 | 0.01 | 99 | 1010.7 |
| 20260506233603 | 33 | 158 | 0.0 | 2.0 | 0.01 | 1.13 | 0.01 | 99 | 1010.6 |
| 20260506233504 | 33 | 0 | 0.0 | 0.0 | 0.01 | 1.13 | 0.01 | 99 | 1010.6 |
| 20260506233303 | 32 | 170 | 0.0 | 2.0 | 0.01 | 1.13 | 0.01 | 99 | 1010.8 |
| 20260506233203 | 32 | 170 | 0.0 | 2.0 | 0.01 | 1.13 | 0.01 | 99 | 1010.8 |
| 20260506233104 | 32 | 170 | 0.0 | 2.0 | 0.01 | 1.13 | 0.01 | 99 | 1010.6 |
| 20260506233005 | 32 | 159 | 0.0 | 2.0 | 0.01 | 1.13 | 0.01 | 99 | 1010.7 |
| 20260506232904 | 32 | 153 | 1.0 | 2.0 | 0.01 | 1.13 | 0.01 | 99 | 1010.5 |
| 20260506232703 | 32 | 148 | 1.0 | 2.0 | 0.01 | 1.13 | 0.01 | 99 | 1010.7 |
| 20260506232603 | 32 | 148 | 1.0 | 2.0 | 0.01 | 1.13 | 0.01 | 99 | 1010.6 |
| 20260506232504 | 33 | 149 | 1.0 | 2.0 | 0.01 | 1.13 | 0.01 | 99 | 1010.7 |
| 20260506232403 | 32 | 148 | 1.0 | 2.0 | 0.01 | 1.13 | 0.01 | 99 | 1010.6 |
| 20260506232306 | 32 | 145 | 1.0 | 2.0 | 0.01 | 1.13 | 0.01 | 99 | 1010.4 |
| 20260506232204 | 32 | 146 | 1.0 | 2.0 | 0.01 | 1.13 | 0.01 | 99 | 1010.8 |
| 20260506232104 | 32 | 148 | 1.0 | 2.0 | 0.01 | 1.13 | 0.01 | 99 | 1010.5 |
| 20260506232005 | 32 | 148 | 1.0 | 2.0 | 0.01 | 1.13 | 0.01 | 99 | 1010.6 |
| 20260506231904 | 32 | 151 | 1.0 | 2.0 | 0.01 | 1.13 | 0.01 | 99 | 1010.8 |
| 20260506231803 | 32 | 153 | 1.0 | 2.0 | 0.01 | 1.13 | 0.01 | 99 | 1010.3 |
| 20260506231703 | 32 | 158 | 1.0 | 2.0 | 0.01 | 1.13 | 0.01 | 99 | 1010.5 |
| 20260506231603 | 32 | 161 | 1.0 | 2.0 | 0.01 | 1.13 | 0.01 | 99 | 1010.6 |
| 20260506231504 | 32 | 164 | 1.0 | 2.0 | 0.01 | 1.13 | 0.01 | 99 | 1010.5 |
| 20260506231403 | 32 | 164 | 1.0 | 2.0 | 0.01 | 1.13 | 0.01 | 99 | 1010.5 |
| 20260506231303 | 32 | 163 | 1.0 | 2.0 | 0.01 | 1.13 | 0.01 | 99 | 1010.6 |
| 20260506231204 | 32 | 163 | 1.0 | 2.0 | 0.01 | 1.13 | 0.01 | 99 | 1010.6 |
| 20260506231005 | 33 | 164 | 1.0 | 2.0 | 0.01 | 1.13 | 0.01 | 99 | 1010.5 |
| 20260506230803 | 32 | 161 | 1.0 | 2.0 | 0.01 | 1.13 | 0.01 | 99 | 1010.8 |
| 20260506230703 | 32 | 161 | 1.0 | 2.0 | 0.01 | 1.13 | 0.01 | 99 | 1010.4 |
| 20260506230603 | 33 | 156 | 1.0 | 2.0 | 0.01 | 1.13 | 0.01 | 99 | 1010.6 |
| 20260506230504 | 33 | 150 | 1.0 | 2.0 | 0.01 | 1.13 | 0.01 | 99 | 1010.4 |
| 20260506230404 | 33 | 147 | 1.0 | 2.0 | 0.01 | 1.13 | 0.01 | 99 | 1010.6 |
| 20260506230304 | 33 | 143 | 0.0 | 2.0 | 0.01 | 1.13 | 0.01 | 99 | 1010.6 |
| 20260506230203 | 33 | 135 | 0.0 | 2.0 | 0.01 | 1.13 | 0.01 | 99 | 1010.7 |
| 20260506230103 | 33 | 135 | 0.0 | 2.0 | 0.01 | 1.13 | 0.01 | 99 | 1010.8 |
| 20260506230004 | 33 | 135 | 0.0 | 2.0 | 0.01 | 1.13 | 0.01 | 99 | 1010.8 |
| 20260506225904 | 33 | 135 | 0.0 | 2.0 | 0.01 | 1.13 | 0.01 | 99 | 1010.9 |
| 20260506225804 | 33 | 135 | 0.0 | 2.0 | 0.01 | 1.13 | 0.01 | 99 | 1010.9 |
| 20260506225703 | 33 | 135 | 0.0 | 2.0 | 0.01 | 1.13 | 0.01 | 99 | 1010.7 |
| 20260506225603 | 33 | 135 | 0.0 | 2.0 | 0.01 | 1.13 | 0.01 | 99 | 1010.8 |
| 20260506225403 | 32 | 0 | 0.0 | 0.0 | 0.00 | 1.12 | 0.00 | 99 | 1010.5 |
| 20260506225203 | 32 | 0 | 0.0 | 0.0 | 0.00 | 1.12 | 0.00 | 99 | 1010.6 |
| 20260506225103 | 32 | 0 | 0.0 | 0.0 | 0.00 | 1.12 | 0.00 | 99 | 1010.9 |
| 20260506225004 | 33 | 0 | 0.0 | 0.0 | 0.00 | 1.12 | 0.00 | 99 | 1010.7 |
| 20260506224903 | 33 | 0 | 0.0 | 0.0 | 0.00 | 1.13 | 0.00 | 99 | 1010.8 |
| 20260506224804 | 33 | 0 | 0.0 | 0.0 | 0.00 | 1.13 | 0.00 | 99 | 1010.9 |
| 20260506224704 | 33 | 0 | 0.0 | 0.0 | 0.00 | 1.13 | 0.00 | 99 | 1010.9 |
| 20260506224604 | 33 | 0 | 0.0 | 0.0 | 0.00 | 1.13 | 0.00 | 99 | 1011.2 |
| 20260506224504 | 33 | 0 | 0.0 | 0.0 | 0.00 | 1.13 | 0.00 | 99 | 1010.9 |
| 20260506224403 | 33 | 0 | 0.0 | 0.0 | 0.00 | 1.13 | 0.00 | 99 | 1010.9 |
| 20260506224303 | 33 | 0 | 0.0 | 0.0 | 0.00 | 1.13 | 0.00 | 99 | 1011.0 |
| 20260506224204 | 33 | 0 | 0.0 | 0.0 | 0.00 | 1.13 | 0.00 | 99 | 1011.0 |
| 20260506224104 | 33 | 0 | 0.0 | 0.0 | 0.00 | 1.13 | 0.00 | 99 | 1010.9 |
| 20260506223804 | 33 | 0 | 0.0 | 0.0 | 0.00 | 1.13 | 0.00 | 99 | 1011.0 |
| 20260506223703 | 33 | 0 | 0.0 | 0.0 | 0.00 | 1.13 | 0.00 | 99 | 1010.9 |
| 20260506223504 | 32 | 0 | 0.0 | 0.0 | 0.00 | 1.13 | 0.00 | 99 | 1010.9 |
| 20260506223404 | 32 | 0 | 0.0 | 0.0 | 0.00 | 1.13 | 0.00 | 99 | 1011.0 |
| 20260506223303 | 32 | 0 | 0.0 | 0.0 | 0.00 | 1.13 | 0.00 | 99 | 1011.0 |
| 20260506223203 | 32 | 0 | 0.0 | 0.0 | 0.00 | 1.13 | 0.00 | 99 | 1010.7 |
| 20260506223103 | 32 | 0 | 0.0 | 0.0 | 0.00 | 1.13 | 0.00 | 99 | 1011.1 |
| 20260506223004 | 32 | 0 | 0.0 | 0.0 | 0.00 | 1.13 | 0.00 | 99 | 1010.9 |
| 20260506222804 | 32 | 0 | 0.0 | 0.0 | 0.00 | 1.13 | 0.00 | 99 | 1011.0 |
| 20260506222704 | 32 | 0 | 0.0 | 0.0 | 0.00 | 1.13 | 0.00 | 99 | 1010.9 |
| 20260506222603 | 32 | 0 | 0.0 | 0.0 | 0.00 | 1.13 | 0.00 | 99 | 1010.9 |
| 20260506222403 | 32 | 0 | 0.0 | 0.0 | 0.00 | 1.13 | 0.00 | 99 | 1010.9 |
| 20260506222305 | 32 | 0 | 0.0 | 0.0 | 0.01 | 1.13 | 0.00 | 99 | 1011.0 |
| 20260506222204 | 32 | 0 | 0.0 | 0.0 | 0.01 | 1.13 | 0.00 | 99 | 1011.0 |
| 20260506222005 | 32 | 0 | 0.0 | 0.0 | 0.01 | 1.13 | 0.00 | 99 | 1010.9 |
| 20260506221904 | 32 | 0 | 0.0 | 0.0 | 0.01 | 1.13 | 0.00 | 99 | 1010.8 |
| 20260506221803 | 32 | 0 | 0.0 | 0.0 | 0.01 | 1.13 | 0.00 | 99 | 1011.0 |
| 20260506221703 | 32 | 0 | 0.0 | 0.0 | 0.01 | 1.13 | 0.00 | 99 | 1010.9 |
| 20260506221603 | 32 | 0 | 0.0 | 0.0 | 0.01 | 1.13 | 0.00 | 99 | 1010.8 |
| 20260506221504 | 33 | 0 | 0.0 | 0.0 | 0.01 | 1.13 | 0.00 | 99 | 1011.0 |
| 20260506221403 | 33 | 0 | 0.0 | 0.0 | 0.01 | 1.13 | 0.00 | 99 | 1010.9 |
| 20260506221303 | 33 | 0 | 0.0 | 0.0 | 0.01 | 1.13 | 0.00 | 99 | 1010.9 |
| 20260506221104 | 33 | 0 | 0.0 | 0.0 | 0.01 | 1.13 | 0.00 | 99 | 1010.8 |
| 20260506221005 | 33 | 0 | 0.0 | 0.0 | 0.02 | 1.13 | 0.00 | 99 | 1010.9 |
| 20260506220904 | 33 | 0 | 0.0 | 0.0 | 0.02 | 1.13 | 0.00 | 99 | 1011.1 |
| 20260506220803 | 33 | 0 | 0.0 | 0.0 | 0.02 | 1.13 | 0.00 | 99 | 1010.8 |
| 20260506220603 | 33 | 0 | 0.0 | 0.0 | 0.02 | 1.13 | 0.00 | 99 | 1011.0 |
| 20260506220504 | 32 | 0 | 0.0 | 0.0 | 0.02 | 1.13 | 0.00 | 99 | 1011.1 |
| 20260506220403 | 32 | 0 | 0.0 | 0.0 | 0.02 | 1.13 | 0.00 | 99 | 1010.8 |
| 20260506220303 | 32 | 0 | 0.0 | 0.0 | 0.02 | 1.13 | 0.00 | 99 | 1011.0 |
| 20260506220203 | 32 | 0 | 0.0 | 0.0 | 0.02 | 1.13 | 0.00 | 99 | 1010.9 |
| 20260506220104 | 33 | 0 | 0.0 | 0.0 | 0.02 | 1.13 | 0.00 | 99 | 1010.9 |
| 20260506220005 | 33 | 0 | 0.0 | 0.0 | 0.02 | 1.13 | 0.00 | 99 | 1010.8 |
| 20260506215904 | 33 | 0 | 0.0 | 0.0 | 0.02 | 1.13 | 1.13 | 99 | 1010.8 |
| 20260506215804 | 33 | 0 | 0.0 | 0.0 | 0.04 | 1.13 | 1.13 | 99 | 1011.0 |
| 20260506215703 | 33 | 0 | 0.0 | 0.0 | 0.04 | 1.13 | 1.13 | 99 | 1011.0 |
| 20260506215603 | 33 | 0 | 0.0 | 0.0 | 0.04 | 1.13 | 1.13 | 99 | 1011.0 |
| 20260506215504 | 33 | 0 | 0.0 | 0.0 | 0.04 | 1.13 | 1.13 | 99 | 1010.9 |
| 20260506215403 | 33 | 0 | 0.0 | 0.0 | 0.04 | 1.13 | 1.13 | 99 | 1011.1 |
| 20260506215306 | 33 | 0 | 0.0 | 0.0 | 0.04 | 1.13 | 1.13 | 99 | 1010.9 |
| 20260506215204 | 33 | 0 | 0.0 | 0.0 | 0.04 | 1.13 | 1.13 | 99 | 1011.0 |
| 20260506215103 | 33 | 0 | 0.0 | 0.0 | 0.04 | 1.13 | 1.13 | 99 | 1010.9 |
| 20260506214903 | 33 | 0 | 0.0 | 0.0 | 0.05 | 1.13 | 1.13 | 99 | 1010.8 |
| 20260506214803 | 32 | 0 | 0.0 | 0.0 | 0.05 | 1.13 | 1.13 | 99 | 1010.9 |
| 20260506214703 | 32 | 0 | 0.0 | 0.0 | 0.05 | 1.13 | 1.13 | 99 | 1011.2 |
| 20260506214604 | 32 | 0 | 0.0 | 0.0 | 0.05 | 1.13 | 1.13 | 99 | 1011.0 |
| 20260506214404 | 33 | 0 | 0.0 | 0.0 | 0.05 | 1.13 | 1.13 | 99 | 1010.8 |
| 20260506214304 | 33 | 0 | 0.0 | 0.0 | 0.05 | 1.13 | 1.13 | 99 | 1011.1 |
| 20260506214203 | 33 | 0 | 0.0 | 0.0 | 0.05 | 1.13 | 1.13 | 99 | 1010.9 |
| 20260506214103 | 33 | 0 | 0.0 | 0.0 | 0.05 | 1.13 | 1.13 | 99 | 1010.9 |
| 20260506213903 | 33 | 0 | 0.0 | 0.0 | 0.05 | 1.13 | 1.13 | 99 | 1010.9 |
| 20260506213803 | 33 | 0 | 0.0 | 0.0 | 0.05 | 1.13 | 1.13 | 99 | 1011.0 |
| 20260506213703 | 33 | 0 | 0.0 | 0.0 | 0.05 | 1.13 | 1.13 | 99 | 1010.9 |
| 20260506213504 | 33 | 0 | 0.0 | 0.0 | 0.05 | 1.13 | 1.13 | 99 | 1011.3 |
| 20260506213404 | 33 | 0 | 0.0 | 0.0 | 0.05 | 1.13 | 1.13 | 99 | 1011.1 |
| 20260506213304 | 33 | 0 | 0.0 | 0.0 | 0.05 | 1.13 | 1.13 | 99 | 1011.1 |
| 20260506213203 | 33 | 0 | 0.0 | 0.0 | 0.05 | 1.13 | 1.13 | 99 | 1010.9 |
| 20260506213005 | 33 | 0 | 0.0 | 0.0 | 0.06 | 1.13 | 1.13 | 99 | 1011.0 |
| 20260506212904 | 32 | 0 | 0.0 | 0.0 | 0.06 | 1.13 | 1.13 | 99 | 1011.1 |
| 20260506212805 | 33 | 0 | 0.0 | 0.0 | 0.06 | 1.13 | 1.13 | 99 | 1010.9 |
| 20260506212705 | 33 | 0 | 0.0 | 0.0 | 0.06 | 1.13 | 1.13 | 99 | 1011.1 |
| 20260506212605 | 33 | 0 | 0.0 | 0.0 | 0.06 | 1.13 | 1.13 | 99 | 1011.0 |
| 20260506212506 | 33 | 158 | 0.0 | 2.0 | 0.06 | 1.13 | 1.13 | 99 | 1011.1 |
| 20260506212405 | 33 | 167 | 0.0 | 2.0 | 0.05 | 1.12 | 1.12 | 99 | 1011.0 |
| 20260506212205 | 33 | 167 | 0.0 | 2.0 | 0.05 | 1.12 | 1.12 | 99 | 1011.1 |
| 20260506212105 | 33 | 167 | 0.0 | 2.0 | 0.06 | 1.12 | 1.12 | 99 | 1011.2 |
| 20260506212006 | 33 | 167 | 0.0 | 2.0 | 0.06 | 1.12 | 1.12 | 99 | 1011.0 |
| 20260506211705 | 33 | 160 | 0.0 | 2.0 | 0.07 | 1.12 | 1.12 | 99 | 1011.1 |
| 20260506211605 | 33 | 151 | 0.0 | 2.0 | 0.07 | 1.12 | 1.12 | 99 | 1011.2 |
| 20260506211505 | 33 | 151 | 1.0 | 2.0 | 0.07 | 1.12 | 1.12 | 99 | 1011.1 |
| 20260506211404 | 33 | 141 | 0.0 | 2.0 | 0.07 | 1.12 | 1.12 | 99 | 1011.1 |
| 20260506211305 | 33 | 141 | 0.0 | 2.0 | 0.07 | 1.12 | 1.12 | 99 | 1010.8 |
| 20260506211205 | 33 | 141 | 0.0 | 2.0 | 0.08 | 1.12 | 1.12 | 99 | 1011.2 |
| 20260506211105 | 33 | 140 | 0.0 | 2.0 | 0.07 | 1.11 | 1.11 | 99 | 1011.0 |
| 20260506211005 | 33 | 148 | 1.0 | 4.0 | 0.07 | 1.11 | 1.11 | 99 | 1011.2 |
| 20260506210905 | 33 | 148 | 1.0 | 4.0 | 0.07 | 1.11 | 1.11 | 99 | 1011.0 |
| 20260506210805 | 33 | 145 | 1.0 | 4.0 | 0.07 | 1.11 | 1.11 | 99 | 1011.2 |
| 20260506210705 | 33 | 149 | 1.0 | 4.0 | 0.07 | 1.11 | 1.11 | 99 | 1011.1 |
| 20260506210604 | 33 | 147 | 2.0 | 4.0 | 0.07 | 1.11 | 1.11 | 99 | 1011.1 |
| 20260506210404 | 33 | 142 | 2.0 | 4.0 | 0.07 | 1.11 | 1.11 | 99 | 1011.3 |
| 20260506210304 | 33 | 141 | 2.0 | 4.0 | 0.07 | 1.11 | 1.11 | 99 | 1011.3 |
| 20260506210205 | 33 | 141 | 3.0 | 4.0 | 0.07 | 1.11 | 1.11 | 99 | 1011.2 |
| 20260506210105 | 33 | 141 | 3.0 | 4.0 | 0.07 | 1.11 | 1.11 | 99 | 1011.3 |
| 20260506205705 | 34 | 142 | 3.0 | 4.0 | 0.06 | 1.10 | 1.10 | 99 | 1011.4 |
| 20260506205604 | 34 | 143 | 3.0 | 4.0 | 0.06 | 1.10 | 1.10 | 99 | 1011.2 |
| 20260506205505 | 34 | 144 | 3.0 | 4.0 | 0.06 | 1.10 | 1.10 | 99 | 1011.2 |
| 20260506205306 | 33 | 141 | 3.0 | 4.0 | 0.06 | 1.10 | 1.10 | 99 | 1011.2 |
| 20260506205205 | 33 | 139 | 3.0 | 4.0 | 0.06 | 1.10 | 1.10 | 99 | 1011.2 |
| 20260506205105 | 33 | 139 | 2.0 | 4.0 | 0.06 | 1.10 | 1.10 | 99 | 1011.2 |
| 20260506205006 | 33 | 137 | 2.0 | 4.0 | 0.05 | 1.09 | 1.09 | 99 | 1011.2 |
| 20260506204905 | 33 | 134 | 2.0 | 4.0 | 0.06 | 1.09 | 1.09 | 99 | 1011.3 |
| 20260506204805 | 33 | 133 | 1.0 | 4.0 | 0.06 | 1.09 | 1.09 | 99 | 1011.2 |
| 20260506204704 | 33 | 122 | 1.0 | 4.0 | 0.06 | 1.09 | 1.09 | 99 | 1011.2 |
| 20260506204604 | 33 | 121 | 1.0 | 2.0 | 0.06 | 1.09 | 1.09 | 99 | 1011.2 |
| 20260506204505 | 33 | 126 | 1.0 | 2.0 | 0.06 | 1.09 | 1.09 | 99 | 1011.3 |
| 20260506204404 | 33 | 137 | 1.0 | 2.0 | 0.06 | 1.09 | 1.09 | 99 | 1011.2 |
| 20260506204304 | 33 | 153 | 1.0 | 2.0 | 0.06 | 1.09 | 1.09 | 99 | 1011.2 |
| 20260506204105 | 33 | 173 | 1.0 | 2.0 | 0.06 | 1.09 | 1.09 | 99 | 1011.0 |
| 20260506203905 | 33 | 168 | 1.0 | 2.0 | 0.06 | 1.09 | 1.09 | 99 | 1011.0 |
| 20260506203705 | 34 | 167 | 2.0 | 2.0 | 0.06 | 1.09 | 1.09 | 99 | 1010.9 |
| 20260506203604 | 34 | 166 | 2.0 | 2.0 | 0.06 | 1.09 | 1.09 | 99 | 1011.0 |
| 20260506203405 | 33 | 169 | 2.0 | 2.0 | 0.06 | 1.09 | 1.09 | 99 | 1010.7 |
| 20260506203305 | 33 | 170 | 2.0 | 4.0 | 0.06 | 1.09 | 1.09 | 99 | 1010.7 |
| 20260506203104 | 33 | 171 | 2.0 | 4.0 | 0.05 | 1.07 | 1.07 | 99 | 1010.6 |
| 20260506203005 | 33 | 177 | 2.0 | 4.0 | 0.05 | 1.07 | 1.07 | 99 | 1011.0 |
| 20260506202904 | 33 | 179 | 2.0 | 4.0 | 0.05 | 1.09 | 1.07 | 99 | 1010.8 |
| 20260506202804 | 33 | 177 | 2.0 | 4.0 | 0.05 | 1.09 | 1.07 | 99 | 1010.6 |
| 20260506202706 | 33 | 179 | 2.0 | 4.0 | 0.05 | 1.09 | 1.07 | 99 | 1010.9 |
| 20260506202605 | 33 | 181 | 2.0 | 4.0 | 0.05 | 1.09 | 1.07 | 99 | 1010.7 |
| 20260506202506 | 33 | 181 | 2.0 | 4.0 | 0.05 | 1.09 | 1.07 | 99 | 1010.9 |
| 20260506202405 | 33 | 182 | 2.0 | 4.0 | 0.05 | 1.09 | 1.07 | 99 | 1010.8 |
| 20260506202306 | 33 | 179 | 2.0 | 4.0 | 0.05 | 1.09 | 1.07 | 99 | 1010.7 |
| 20260506202005 | 33 | 171 | 2.0 | 2.0 | 0.04 | 1.07 | 1.06 | 99 | 1010.7 |
| 20260506201805 | 33 | 166 | 2.0 | 4.0 | 0.02 | 1.06 | 1.05 | 99 | 1011.0 |
| 20260506201705 | 33 | 169 | 2.0 | 4.0 | 0.02 | 1.06 | 1.05 | 99 | 1010.8 |
| 20260506201605 | 33 | 175 | 2.0 | 4.0 | 0.02 | 1.06 | 1.05 | 99 | 1010.7 |
| 20260506201505 | 33 | 174 | 2.0 | 4.0 | 0.02 | 1.06 | 1.05 | 99 | 1010.7 |
| 20260506201404 | 33 | 171 | 2.0 | 4.0 | 0.02 | 1.06 | 1.05 | 99 | 1010.8 |
| 20260506201304 | 33 | 169 | 2.0 | 4.0 | 0.01 | 1.05 | 1.04 | 99 | 1010.7 |
| 20260506201204 | 33 | 171 | 2.0 | 4.0 | 0.01 | 1.05 | 1.04 | 99 | 1010.7 |
| 20260506201005 | 33 | 169 | 2.0 | 4.0 | 0.01 | 1.05 | 1.04 | 99 | 1010.9 |
| 20260506200905 | 33 | 167 | 2.0 | 2.0 | 0.01 | 1.05 | 1.04 | 99 | 1010.4 |
| 20260506200805 | 33 | 169 | 2.0 | 4.0 | 0.01 | 1.05 | 1.04 | 99 | 1010.8 |
| 20260506200705 | 33 | 166 | 2.0 | 4.0 | 0.01 | 1.05 | 1.04 | 99 | 1010.7 |
| 20260506200604 | 33 | 160 | 2.0 | 4.0 | 0.01 | 1.05 | 1.04 | 99 | 1010.6 |
| 20260506200505 | 33 | 161 | 2.0 | 4.0 | 0.01 | 1.05 | 1.04 | 99 | 1010.8 |
| 20260506200404 | 33 | 164 | 2.0 | 4.0 | 0.01 | 1.05 | 1.04 | 99 | 1010.7 |
| 20260506200304 | 33 | 167 | 2.0 | 4.0 | 0.02 | 1.05 | 1.04 | 99 | 1010.8 |
| 20260506195805 | 33 | 173 | 1.0 | 2.0 | 0.02 | 1.05 | 1.04 | 99 | 1010.8 |
| 20260506195705 | 33 | 173 | 1.0 | 2.0 | 0.02 | 1.05 | 1.04 | 99 | 1010.5 |
| 20260506195604 | 34 | 175 | 1.0 | 2.0 | 0.02 | 1.05 | 1.04 | 99 | 1010.6 |
| 20260506195505 | 33 | 172 | 1.0 | 2.0 | 0.02 | 1.05 | 1.04 | 99 | 1010.5 |
| 20260506195306 | 33 | 161 | 2.0 | 2.0 | 0.02 | 1.05 | 1.04 | 99 | 1010.6 |
| 20260506195204 | 33 | 155 | 2.0 | 2.0 | 0.02 | 1.05 | 1.04 | 99 | 1010.6 |
| 20260506195105 | 33 | 155 | 2.0 | 2.0 | 0.02 | 1.05 | 1.04 | 99 | 1010.3 |
| 20260506195005 | 33 | 156 | 2.0 | 2.0 | 0.02 | 1.05 | 1.04 | 99 | 1010.6 |
| 20260506194905 | 33 | 156 | 2.0 | 2.0 | 0.01 | 1.04 | 1.03 | 99 | 1010.4 |
| 20260506194805 | 33 | 155 | 2.0 | 2.0 | 0.02 | 1.04 | 1.03 | 99 | 1010.6 |
| 20260506194704 | 33 | 156 | 2.0 | 2.0 | 0.02 | 1.04 | 1.03 | 99 | 1010.6 |
| 20260506194505 | 33 | 155 | 2.0 | 2.0 | 0.02 | 1.04 | 1.03 | 99 | 1010.3 |
| 20260506194304 | 33 | 161 | 2.0 | 2.0 | 0.02 | 1.04 | 1.03 | 99 | 1010.5 |
| 20260506194204 | 33 | 168 | 2.0 | 2.0 | 0.02 | 1.04 | 1.03 | 99 | 1010.6 |
| 20260506194005 | 33 | 172 | 2.0 | 2.0 | 0.02 | 1.04 | 1.03 | 99 | 1010.3 |
| 20260506193904 | 33 | 174 | 2.0 | 2.0 | 0.02 | 1.05 | 1.03 | 99 | 1010.4 |
| 20260506193705 | 33 | 172 | 2.0 | 2.0 | 0.02 | 1.05 | 1.03 | 99 | 1010.5 |
| 20260506193605 | 33 | 171 | 2.0 | 2.0 | 0.02 | 1.05 | 1.03 | 99 | 1010.3 |
| 20260506193506 | 33 | 178 | 1.0 | 2.0 | 0.02 | 1.05 | 1.03 | 99 | 1010.2 |
| 20260506193405 | 33 | 177 | 1.0 | 2.0 | 0.02 | 1.06 | 1.03 | 99 | 1010.2 |
| 20260506193305 | 33 | 175 | 1.0 | 2.0 | 0.02 | 1.06 | 1.03 | 99 | 1010.4 |
| 20260506193204 | 33 | 171 | 1.0 | 2.0 | 0.02 | 1.06 | 1.03 | 99 | 1010.3 |
| 20260506192904 | 33 | 161 | 1.0 | 2.0 | 0.02 | 1.06 | 1.03 | 99 | 1010.5 |
| 20260506192804 | 33 | 161 | 1.0 | 2.0 | 0.02 | 1.06 | 1.03 | 99 | 1010.5 |
| 20260506192705 | 33 | 162 | 1.0 | 2.0 | 0.02 | 1.06 | 1.03 | 99 | 1010.4 |
| 20260506192605 | 33 | 162 | 1.0 | 2.0 | 0.02 | 1.06 | 1.03 | 99 | 1010.3 |
| 20260506192505 | 33 | 162 | 1.0 | 2.0 | 0.04 | 1.06 | 1.03 | 99 | 1010.6 |
| 20260506192405 | 33 | 161 | 1.0 | 2.0 | 0.04 | 1.06 | 1.03 | 99 | 1010.4 |
| 20260506192306 | 33 | 164 | 1.0 | 2.0 | 0.04 | 1.06 | 1.03 | 99 | 1010.3 |
| 20260506192205 | 33 | 163 | 1.0 | 2.0 | 0.04 | 1.06 | 1.03 | 99 | 1010.5 |
| 20260506192104 | 33 | 162 | 1.0 | 2.0 | 0.05 | 1.06 | 1.03 | 99 | 1010.5 |
| 20260506191904 | 33 | 160 | 1.0 | 2.0 | 0.05 | 1.06 | 1.03 | 99 | 1010.3 |
| 20260506191705 | 33 | 160 | 1.0 | 2.0 | 0.05 | 1.06 | 1.03 | 99 | 1010.3 |
| 20260506191605 | 33 | 159 | 1.0 | 2.0 | 0.06 | 1.06 | 1.03 | 99 | 1010.4 |
| 20260506191506 | 33 | 159 | 1.0 | 2.0 | 0.06 | 1.06 | 1.03 | 99 | 1010.1 |
| 20260506191405 | 34 | 159 | 1.0 | 2.0 | 0.07 | 1.06 | 1.03 | 99 | 1010.3 |
| 20260506191305 | 34 | 158 | 1.0 | 2.0 | 0.08 | 1.06 | 1.03 | 99 | 1010.2 |
| 20260506191204 | 34 | 160 | 1.0 | 2.0 | 0.08 | 1.06 | 1.03 | 99 | 1010.3 |
| 20260506191104 | 33 | 160 | 1.0 | 2.0 | 0.08 | 1.06 | 1.03 | 99 | 1010.3 |
| 20260506190904 | 33 | 161 | 2.0 | 2.0 | 0.09 | 1.06 | 1.03 | 99 | 1010.4 |
| 20260506190805 | 33 | 162 | 2.0 | 2.0 | 0.09 | 1.06 | 1.03 | 99 | 1010.4 |
| 20260506190705 | 33 | 159 | 2.0 | 2.0 | 0.09 | 1.06 | 1.03 | 99 | 1010.3 |
| 20260506190506 | 33 | 155 | 2.0 | 2.0 | 0.11 | 1.06 | 1.03 | 99 | 1010.4 |
| 20260506190405 | 33 | 154 | 2.0 | 2.0 | 0.13 | 1.06 | 1.03 | 99 | 1010.3 |
| 20260506190305 | 33 | 153 | 2.0 | 2.0 | 0.12 | 1.05 | 1.02 | 99 | 1010.2 |
| 20260506190204 | 33 | 152 | 2.0 | 2.0 | 0.12 | 1.05 | 1.02 | 99 | 1010.2 |
| 20260506190104 | 33 | 151 | 2.0 | 2.0 | 0.12 | 1.05 | 1.02 | 99 | 1010.2 |
| 20260506185904 | 33 | 152 | 2.0 | 2.0 | 0.12 | 1.05 | 1.02 | 99 | 1010.2 |
| 20260506185804 | 33 | 149 | 2.0 | 2.0 | 0.12 | 1.05 | 1.02 | 99 | 1010.3 |
| 20260506185705 | 33 | 150 | 1.0 | 2.0 | 0.12 | 1.05 | 1.02 | 99 | 1010.3 |
| 20260506185605 | 33 | 152 | 1.0 | 2.0 | 0.13 | 1.05 | 1.02 | 99 | 1010.3 |
| 20260506185505 | 33 | 155 | 1.0 | 2.0 | 0.13 | 1.05 | 1.02 | 99 | 1010.2 |
| 20260506185306 | 33 | 157 | 1.0 | 2.0 | 0.13 | 1.05 | 1.02 | 99 | 1010.2 |
| 20260506185204 | 33 | 156 | 1.0 | 4.0 | 0.14 | 1.05 | 1.02 | 99 | 1010.1 |
| 20260506185005 | 33 | 153 | 2.0 | 4.0 | 0.14 | 1.05 | 1.02 | 99 | 1010.4 |
| 20260506184904 | 33 | 149 | 2.0 | 4.0 | 0.14 | 1.05 | 1.02 | 99 | 1010.0 |
| 20260506184805 | 33 | 149 | 2.0 | 4.0 | 0.13 | 1.04 | 1.00 | 99 | 1010.2 |
| 20260506184705 | 33 | 151 | 2.0 | 4.0 | 0.13 | 1.04 | 1.00 | 99 | 1010.2 |
| 20260506184605 | 33 | 154 | 2.0 | 4.0 | 0.14 | 1.04 | 1.00 | 99 | 1010.5 |
| 20260506184405 | 33 | 155 | 2.0 | 4.0 | 0.15 | 1.04 | 1.00 | 99 | 1010.3 |
| 20260506184305 | 33 | 154 | 2.0 | 4.0 | 0.17 | 1.04 | 1.00 | 99 | 1010.3 |
| 20260506184204 | 33 | 156 | 2.0 | 4.0 | 0.18 | 1.04 | 1.00 | 99 | 1010.3 |
| 20260506184104 | 33 | 157 | 2.0 | 4.0 | 0.18 | 1.04 | 1.00 | 99 | 1010.3 |
| 20260506183905 | 33 | 160 | 2.0 | 4.0 | 0.19 | 1.04 | 1.00 | 99 | 1010.2 |
| 20260506183805 | 33 | 160 | 2.0 | 4.0 | 0.19 | 1.04 | 1.00 | 99 | 1010.1 |
| 20260506183705 | 33 | 157 | 2.0 | 4.0 | 0.21 | 1.04 | 1.00 | 99 | 1010.3 |
| 20260506183605 | 33 | 153 | 2.0 | 4.0 | 0.21 | 1.04 | 1.00 | 99 | 1010.2 |
| 20260506183505 | 33 | 151 | 2.0 | 4.0 | 0.22 | 1.04 | 1.00 | 99 | 1010.2 |
| 20260506183404 | 33 | 152 | 2.0 | 4.0 | 0.22 | 1.04 | 1.00 | 99 | 1010.1 |
| 20260506183304 | 32 | 154 | 2.0 | 4.0 | 0.24 | 1.04 | 1.00 | 99 | 1010.2 |
| 20260506183104 | 32 | 152 | 2.0 | 2.0 | 0.25 | 1.04 | 1.00 | 99 | 1010.1 |
| 20260506183005 | 32 | 159 | 2.0 | 2.0 | 0.26 | 1.04 | 1.00 | 99 | 1010.1 |
| 20260506182905 | 32 | 164 | 2.0 | 2.0 | 0.26 | 1.04 | 1.00 | 99 | 1010.3 |
| 20260506182805 | 32 | 171 | 2.0 | 2.0 | 0.26 | 1.04 | 1.00 | 99 | 1010.2 |
| 20260506182705 | 32 | 183 | 2.0 | 2.0 | 0.26 | 1.04 | 1.00 | 99 | 1010.4 |
| 20260506182604 | 32 | 185 | 2.0 | 4.0 | 0.26 | 1.03 | 0.99 | 99 | 1010.5 |
| 20260506182505 | 32 | 191 | 2.0 | 4.0 | 0.27 | 1.03 | 0.99 | 99 | 1010.4 |
| 20260506182404 | 32 | 196 | 2.0 | 4.0 | 0.27 | 1.03 | 0.99 | 99 | 1010.5 |
| 20260506182204 | 32 | 207 | 2.0 | 4.0 | 0.31 | 1.03 | 0.99 | 99 | 1010.4 |
| 20260506182105 | 32 | 215 | 2.0 | 4.0 | 0.30 | 1.02 | 0.98 | 99 | 1010.3 |
| 20260506181905 | 32 | 200 | 2.0 | 6.0 | 0.30 | 1.02 | 0.98 | 99 | 1010.2 |
| 20260506181805 | 32 | 195 | 2.0 | 6.0 | 0.30 | 1.02 | 0.98 | 99 | 1010.6 |
| 20260506181704 | 33 | 183 | 2.0 | 6.0 | 0.28 | 1.00 | 0.97 | 99 | 1010.3 |
| 20260506181505 | 33 | 143 | 2.0 | 6.0 | 0.28 | 0.99 | 0.96 | 99 | 1010.5 |
| 20260506181404 | 33 | 128 | 2.0 | 6.0 | 0.30 | 0.99 | 0.96 | 99 | 1010.7 |
| 20260506181305 | 33 | 129 | 2.0 | 6.0 | 0.28 | 0.98 | 0.94 | 99 | 1010.3 |
| 20260506181205 | 33 | 131 | 2.0 | 6.0 | 0.28 | 0.98 | 0.94 | 99 | 1010.5 |
| 20260506181104 | 33 | 129 | 2.0 | 6.0 | 0.28 | 0.98 | 0.94 | 99 | 1010.5 |
| 20260506181005 | 33 | 129 | 2.0 | 6.0 | 0.28 | 0.98 | 0.94 | 99 | 1010.6 |
| 20260506180904 | 33 | 140 | 2.0 | 2.0 | 0.28 | 0.97 | 0.93 | 99 | 1010.7 |
| 20260506180804 | 33 | 132 | 2.0 | 2.0 | 0.28 | 0.97 | 0.93 | 99 | 1010.4 |
| 20260506180704 | 33 | 128 | 1.0 | 2.0 | 0.28 | 0.97 | 0.93 | 99 | 1010.4 |
| 20260506180605 | 33 | 132 | 1.0 | 2.0 | 0.27 | 0.96 | 0.92 | 99 | 1010.3 |
| 20260506180404 | 33 | 131 | 1.0 | 2.0 | 0.26 | 0.93 | 0.90 | 99 | 1010.6 |
| 20260506180305 | 33 | 131 | 1.0 | 2.0 | 0.26 | 0.93 | 0.90 | 99 | 1010.6 |
| 20260506180205 | 33 | 130 | 1.0 | 2.0 | 0.26 | 0.93 | 0.90 | 99 | 1010.5 |
| 20260506180104 | 33 | 143 | 1.0 | 4.0 | 0.27 | 0.93 | 0.90 | 99 | 1010.6 |
| 20260506180006 | 33 | 151 | 1.0 | 4.0 | 0.28 | 0.93 | 0.90 | 99 | 1010.6 |
| 20260506175904 | 33 | 144 | 1.0 | 4.0 | 0.28 | 0.93 | 0.90 | 99 | 1010.5 |
| 20260506175804 | 33 | 148 | 2.0 | 4.0 | 0.28 | 0.93 | 0.90 | 99 | 1010.5 |
| 20260506175704 | 33 | 140 | 2.0 | 6.0 | 0.27 | 0.92 | 0.89 | 99 | 1010.4 |
| 20260506175605 | 33 | 128 | 3.0 | 6.0 | 0.27 | 0.92 | 0.89 | 99 | 1010.5 |
| 20260506175505 | 33 | 133 | 3.0 | 7.0 | 0.28 | 0.92 | 0.89 | 99 | 1010.3 |
| 20260506175306 | 33 | 137 | 4.0 | 7.0 | 0.30 | 0.92 | 0.89 | 99 | 1010.5 |
| 20260506175205 | 33 | 139 | 5.0 | 8.0 | 0.30 | 0.91 | 0.87 | 99 | 1010.4 |
| 20260506175104 | 33 | 134 | 6.0 | 8.0 | 0.30 | 0.91 | 0.87 | 99 | 1010.3 |
| 20260506175005 | 33 | 133 | 6.0 | 11.0 | 0.31 | 0.91 | 0.87 | 99 | 1010.2 |
| 20260506174904 | 33 | 137 | 7.0 | 11.0 | 0.32 | 0.91 | 0.87 | 99 | 1010.3 |
| 20260506174804 | 33 | 134 | 7.0 | 11.0 | 0.32 | 0.91 | 0.87 | 99 | 1010.4 |
| 20260506174704 | 33 | 131 | 7.0 | 11.0 | 0.31 | 0.90 | 0.86 | 99 | 1010.3 |
| 20260506174605 | 33 | 134 | 8.0 | 11.0 | 0.31 | 0.90 | 0.86 | 99 | 1010.2 |
| 20260506174505 | 33 | 132 | 8.0 | 11.0 | 0.31 | 0.89 | 0.85 | 99 | 1010.4 |
| 20260506174405 | 33 | 132 | 8.0 | 11.0 | 0.31 | 0.89 | 0.85 | 99 | 1010.3 |
| 20260506174006 | 33 | 133 | 8.0 | 11.0 | 0.32 | 0.85 | 0.81 | 99 | 1010.3 |
| 20260506173905 | 33 | 129 | 8.0 | 11.0 | 0.33 | 0.85 | 0.81 | 99 | 1010.3 |
| 20260506173804 | 33 | 129 | 8.0 | 11.0 | 0.32 | 0.84 | 0.80 | 99 | 1010.1 |
| 20260506173705 | 34 | 132 | 8.0 | 11.0 | 0.31 | 0.83 | 0.79 | 99 | 1010.3 |
| 20260506173605 | 34 | 132 | 8.0 | 11.0 | 0.31 | 0.83 | 0.79 | 99 | 1010.1 |
| 20260506173506 | 34 | 134 | 9.0 | 11.0 | 0.30 | 0.81 | 0.78 | 99 | 1010.2 |
| 20260506173305 | 33 | 130 | 9.0 | 11.0 | 0.30 | 0.80 | 0.77 | 99 | 1010.0 |
| 20260506173205 | 33 | 124 | 9.0 | 11.0 | 0.31 | 0.80 | 0.77 | 99 | 1010.1 |
| 20260506173105 | 34 | 122 | 9.0 | 11.0 | 0.30 | 0.79 | 0.76 | 99 | 1010.1 |
| 20260506172905 | 34 | 125 | 8.0 | 11.0 | 0.28 | 0.78 | 0.74 | 99 | 1010.1 |
| 20260506172704 | 34 | 124 | 7.0 | 11.0 | 0.28 | 0.77 | 0.73 | 99 | 1009.9 |
| 20260506172604 | 34 | 121 | 6.0 | 11.0 | 0.27 | 0.76 | 0.72 | 99 | 1010.0 |
| 20260506172307 | 34 | 120 | 5.0 | 8.0 | 0.26 | 0.74 | 0.71 | 99 | 1010.2 |
| 20260506172204 | 34 | 127 | 5.0 | 8.0 | 0.25 | 0.72 | 0.69 | 99 | 1010.0 |
| 20260506172105 | 34 | 131 | 5.0 | 8.0 | 0.25 | 0.72 | 0.69 | 99 | 1010.0 |